Wetterdaten: Donnerstag, 25.01.2018
Datum Zeit Temp. Aussen Temp. o. S. +5cm Feuchte Auss BlattFeu 1 Luftdruck Regen Sonnenschein Regendauer Solar Windben Empfang
25.01.2018 00:00 12,3 C 12,2 C 10,6 C 81 % 0 lf 1009,2 hPa 0,0 l/m 0 min 0 min 0 W/m 29,3 km/h (5 Bft) 97,87 %
25.01.2018 00:02 12,3 C 12,2 C 10,6 C 81 % 0 lf 1009,3 hPa 0,0 l/m 0 min 0 min 0 W/m 38,3 km/h (5 Bft) 94,29 %
25.01.2018 00:04 12,3 C 12,2 C 10,6 C 81 % 0 lf 1009,2 hPa 0,0 l/m 0 min 0 min 0 W/m 22,5 km/h (4 Bft) 95,74 %
25.01.2018 00:08 12,3 C 12,2 C 10,6 C 81 % 0 lf 1009,3 hPa 0,0 l/m 0 min 0 min 0 W/m 33,8 km/h (5 Bft) 96,94 %
25.01.2018 00:10 12,3 C 12,2 C 10,6 C 81 % 0 lf 1009,3 hPa 0,0 l/m 0 min 0 min 0 W/m 31,5 km/h (5 Bft) 97,87 %
25.01.2018 00:12 12,3 C 12,2 C 10,6 C 81 % 0 lf 1009,3 hPa 0,0 l/m 0 min 0 min 0 W/m 33,8 km/h (5 Bft) 95,74 %
25.01.2018 00:14 12,3 C 12,2 C 10,6 C 81 % 0 lf 1009,3 hPa 0,0 l/m 0 min 0 min 0 W/m 31,5 km/h (5 Bft) 95,74 %
25.01.2018 00:16 12,3 C 12,2 C 10,6 C 81 % 0 lf 1009,1 hPa 0,0 l/m 0 min 0 min 0 W/m 31,5 km/h (5 Bft) 95,65 %
25.01.2018 00:18 12,3 C 12,2 C 10,6 C 81 % 0 lf 1009,3 hPa 0,0 l/m 0 min 0 min 0 W/m 31,5 km/h (5 Bft) 97,87 %
25.01.2018 00:20 12,3 C 12,2 C 10,6 C 81 % 0 lf 1009,2 hPa 0,0 l/m 0 min 0 min 0 W/m 27,0 km/h (4 Bft) 97,87 %
25.01.2018 00:22 12,3 C 12,2 C 10,6 C 81 % 0 lf 1009,3 hPa 0,0 l/m 0 min 0 min 0 W/m 27,0 km/h (4 Bft) 100,00 %
25.01.2018 00:24 12,3 C 12,2 C 10,6 C 81 % 0 lf 1009,2 hPa 0,0 l/m 0 min 0 min 0 W/m 33,8 km/h (5 Bft) 97,87 %
25.01.2018 00:26 12,3 C 12,2 C 10,6 C 81 % 0 lf 1009,2 hPa 0,0 l/m 0 min 0 min 0 W/m 31,5 km/h (5 Bft) 97,87 %
25.01.2018 00:28 12,3 C 12,2 C 10,6 C 81 % 0 lf 1009,3 hPa 0,0 l/m 0 min 0 min 0 W/m 42,8 km/h (6 Bft) 97,83 %
25.01.2018 00:30 12,3 C 12,2 C 10,6 C 81 % 0 lf 1009,2 hPa 0,0 l/m 0 min 0 min 0 W/m 24,8 km/h (4 Bft) 97,87 %
25.01.2018 00:32 12,3 C 12,2 C 10,6 C 81 % 0 lf 1009,3 hPa 0,0 l/m 0 min 0 min 0 W/m 45,1 km/h (6 Bft) 100,00 %
25.01.2018 00:34 12,3 C 12,2 C 10,6 C 82 % 0 lf 1009,3 hPa 0,0 l/m 0 min 0 min 0 W/m 38,3 km/h (5 Bft) 100,00 %
25.01.2018 00:36 12,3 C 12,2 C 10,6 C 82 % 0 lf 1009,3 hPa 0,0 l/m 0 min 0 min 0 W/m 49,6 km/h (6 Bft) 100,00 %
25.01.2018 00:38 12,3 C 12,2 C 10,6 C 82 % 0 lf 1009,3 hPa 0,0 l/m 0 min 0 min 0 W/m 38,3 km/h (5 Bft) 100,00 %
25.01.2018 00:40 12,3 C 11,7 C 10,6 C 82 % 0 lf 1009,3 hPa 0,0 l/m 0 min 0 min 0 W/m 31,5 km/h (5 Bft) 100,00 %
25.01.2018 00:42 12,3 C 11,7 C 10,0 C 82 % 0 lf 1009,4 hPa 0,0 l/m 0 min 0 min 0 W/m 36,0 km/h (5 Bft) 97,87 %
25.01.2018 00:44 12,3 C 11,1 C 10,0 C 83 % 2 lf 1009,3 hPa 0,0 l/m 0 min 2 min 0 W/m 38,3 km/h (5 Bft) 100,00 %
25.01.2018 00:46 12,2 C 11,1 C 9,4 C 83 % 15 lf 1009,5 hPa 0,0 l/m 0 min 2 min 0 W/m 42,8 km/h (6 Bft) 97,87 %
25.01.2018 00:48 12,2 C 11,1 C 9,4 C 83 % 15 lf 1009,4 hPa 0,0 l/m 0 min 2 min 0 W/m 31,5 km/h (5 Bft) 100,00 %
25.01.2018 00:50 12,2 C 10,6 C 9,4 C 84 % 15 lf 1009,5 hPa 0,0 l/m 0 min 2 min 0 W/m 33,8 km/h (5 Bft) 97,87 %
25.01.2018 00:52 12,1 C 10,6 C 9,4 C 84 % 13 lf 1009,8 hPa 0,0 l/m 0 min 2 min 0 W/m 47,3 km/h (6 Bft) 100,00 %
25.01.2018 00:54 12,1 C 10,6 C 8,9 C 84 % 14 lf 1009,6 hPa 0,0 l/m 0 min 2 min 0 W/m 36,0 km/h (5 Bft) 97,87 %
25.01.2018 00:56 12,0 C 10,6 C 8,9 C 85 % 13 lf 1009,4 hPa 0,0 l/m 0 min 2 min 0 W/m 31,5 km/h (5 Bft) 97,87 %
25.01.2018 00:58 11,9 C 10,6 C 8,9 C 85 % 12 lf 1009,3 hPa 0,0 l/m 0 min 2 min 0 W/m 18,0 km/h (3 Bft) 97,87 %
25.01.2018 01:00 11,9 C 10,6 C 8,9 C 85 % 10 lf 1009,5 hPa 0,0 l/m 0 min 2 min 0 W/m 29,3 km/h (5 Bft) 97,87 %
25.01.2018 01:02 11,9 C 10,6 C 8,9 C 86 % 15 lf 1009,7 hPa 0,0 l/m 0 min 2 min 0 W/m 27,0 km/h (4 Bft) 95,74 %
25.01.2018 01:04 11,8 C 10,6 C 8,9 C 86 % 15 lf 1010,1 hPa 0,0 l/m 0 min 2 min 0 W/m 29,3 km/h (5 Bft) 97,83 %
25.01.2018 01:06 11,7 C 10,0 C 8,9 C 86 % 15 lf 1010,1 hPa 0,0 l/m 0 min 2 min 0 W/m 22,5 km/h (4 Bft) 91,49 %
25.01.2018 01:08 11,7 C 9,4 C 8,3 C 87 % 15 lf 1010,3 hPa 0,0 l/m 0 min 2 min 0 W/m 40,6 km/h (6 Bft) 93,62 %
25.01.2018 01:10 11,5 C 8,9 C 8,3 C 87 % 15 lf 1010,3 hPa 0,4 l/m 0 min 2 min 0 W/m 22,5 km/h (4 Bft) 95,74 %
25.01.2018 01:12 11,3 C 8,9 C 7,8 C 87 % 15 lf 1010,4 hPa 0,2 l/m 0 min 2 min 0 W/m 29,3 km/h (5 Bft) 93,62 %
25.01.2018 01:14 11,2 C 8,9 C 7,8 C 87 % 15 lf 1010,4 hPa 0,0 l/m 0 min 2 min 0 W/m 22,5 km/h (4 Bft) 93,62 %
25.01.2018 01:16 11,0 C 8,3 C 7,8 C 88 % 15 lf 1010,4 hPa 0,2 l/m 0 min 2 min 0 W/m 27,0 km/h (4 Bft) 95,65 %
25.01.2018 01:18 10,8 C 8,3 C 7,8 C 88 % 15 lf 1010,4 hPa 0,0 l/m 0 min 2 min 0 W/m 24,8 km/h (4 Bft) 95,74 %
25.01.2018 01:20 10,7 C 8,3 C 7,8 C 88 % 15 lf 1010,4 hPa 0,0 l/m 0 min 2 min 0 W/m 20,3 km/h (4 Bft) 95,74 %
25.01.2018 01:22 10,5 C 8,3 C 7,8 C 88 % 15 lf 1010,4 hPa 0,0 l/m 0 min 2 min 0 W/m 20,3 km/h (4 Bft) 93,62 %
25.01.2018 01:24 10,4 C 8,3 C 7,2 C 89 % 15 lf 1010,5 hPa 0,2 l/m 0 min 2 min 0 W/m 22,5 km/h (4 Bft) 91,49 %
25.01.2018 01:26 10,3 C 8,3 C 7,2 C 89 % 15 lf 1010,5 hPa 0,0 l/m 0 min 2 min 0 W/m 15,8 km/h (3 Bft) 95,65 %
25.01.2018 01:28 10,1 C 8,3 C 7,2 C 89 % 15 lf 1010,5 hPa 0,0 l/m 0 min 2 min 0 W/m 15,8 km/h (3 Bft) 93,62 %
25.01.2018 01:30 10,0 C 8,3 C 7,2 C 90 % 15 lf 1010,3 hPa 0,0 l/m 0 min 2 min 0 W/m 13,5 km/h (3 Bft) 93,62 %
25.01.2018 01:32 9,9 C 8,3 C 7,2 C 90 % 15 lf 1010,4 hPa 0,2 l/m 0 min 2 min 0 W/m 29,3 km/h (5 Bft) 95,74 %
25.01.2018 01:34 9,8 C 7,8 C 7,2 C 90 % 15 lf 1010,4 hPa 0,0 l/m 0 min 2 min 0 W/m 22,5 km/h (4 Bft) 95,74 %
25.01.2018 01:36 9,7 C 7,8 C 7,2 C 90 % 15 lf 1010,4 hPa 0,0 l/m 0 min 2 min 0 W/m 15,8 km/h (3 Bft) 95,74 %
25.01.2018 01:38 9,6 C 7,8 C 7,2 C 91 % 15 lf 1010,5 hPa 0,0 l/m 0 min 2 min 0 W/m 22,5 km/h (4 Bft) 97,83 %
25.01.2018 01:40 9,4 C 7,8 C 7,2 C 91 % 15 lf 1010,5 hPa 0,0 l/m 0 min 2 min 0 W/m 15,8 km/h (3 Bft) 93,62 %
25.01.2018 01:42 9,4 C 7,8 C 7,2 C 91 % 15 lf 1010,5 hPa 0,0 l/m 0 min 2 min 0 W/m 18,0 km/h (3 Bft) 97,87 %
25.01.2018 01:44 9,3 C 7,8 C 7,2 C 91 % 15 lf 1010,6 hPa 0,0 l/m 0 min 2 min 0 W/m 18,0 km/h (3 Bft) 95,74 %
25.01.2018 01:46 9,2 C 7,8 C 7,2 C 91 % 15 lf 1010,6 hPa 0,2 l/m 0 min 2 min 0 W/m 24,8 km/h (4 Bft) 95,74 %
25.01.2018 01:48 9,2 C 7,8 C 7,2 C 92 % 15 lf 1010,6 hPa 0,0 l/m 0 min 2 min 0 W/m 18,0 km/h (3 Bft) 97,87 %
25.01.2018 01:50 9,1 C 7,8 C 7,2 C 92 % 15 lf 1010,6 hPa 0,0 l/m 0 min 2 min 0 W/m 22,5 km/h (4 Bft) 97,83 %
25.01.2018 01:52 9,0 C 7,8 C 7,2 C 92 % 15 lf 1010,6 hPa 0,0 l/m 0 min 2 min 0 W/m 18,0 km/h (3 Bft) 95,74 %
25.01.2018 01:54 9,0 C 7,8 C 7,2 C 92 % 15 lf 1010,6 hPa 0,0 l/m 0 min 2 min 0 W/m 13,5 km/h (3 Bft) 97,87 %
25.01.2018 01:56 8,9 C 7,8 C 7,2 C 93 % 15 lf 1010,5 hPa 0,0 l/m 0 min 2 min 0 W/m 9,0 km/h (2 Bft) 97,87 %
25.01.2018 01:58 8,9 C 7,8 C 7,2 C 93 % 15 lf 1010,5 hPa 0,0 l/m 0 min 2 min 0 W/m 13,5 km/h (3 Bft) 93,62 %
25.01.2018 02:00 8,9 C 7,8 C 7,2 C 93 % 15 lf 1010,5 hPa 0,0 l/m 0 min 2 min 0 W/m 15,8 km/h (3 Bft) 97,87 %
25.01.2018 02:02 8,8 C 7,8 C 7,2 C 93 % 15 lf 1010,5 hPa 0,0 l/m 0 min 2 min 0 W/m 15,8 km/h (3 Bft) 93,48 %
25.01.2018 02:04 8,8 C 7,8 C 6,7 C 93 % 15 lf 1010,5 hPa 0,2 l/m 0 min 2 min 0 W/m 20,3 km/h (4 Bft) 97,87 %
25.01.2018 02:06 8,7 C 7,8 C 6,7 C 93 % 15 lf 1010,6 hPa 0,0 l/m 0 min 2 min 0 W/m 20,3 km/h (4 Bft) 97,87 %
25.01.2018 02:08 8,7 C 7,8 C 6,7 C 93 % 15 lf 1010,6 hPa 0,0 l/m 0 min 2 min 0 W/m 18,0 km/h (3 Bft) 95,74 %
25.01.2018 02:10 8,6 C 7,8 C 6,7 C 93 % 15 lf 1010,6 hPa 0,0 l/m 0 min 2 min 0 W/m 22,5 km/h (4 Bft) 95,74 %
25.01.2018 02:12 8,6 C 7,8 C 6,7 C 93 % 15 lf 1010,6 hPa 0,0 l/m 0 min 2 min 0 W/m 18,0 km/h (3 Bft) 97,87 %
25.01.2018 02:14 8,6 C 7,8 C 6,7 C 93 % 15 lf 1010,6 hPa 0,0 l/m 0 min 2 min 0 W/m 20,3 km/h (4 Bft) 95,65 %
25.01.2018 02:16 8,5 C 7,2 C 6,7 C 93 % 15 lf 1010,7 hPa 0,0 l/m 0 min 2 min 0 W/m 27,0 km/h (4 Bft) 97,87 %
25.01.2018 02:18 8,5 C 7,2 C 6,7 C 94 % 15 lf 1010,6 hPa 0,0 l/m 0 min 2 min 0 W/m 29,3 km/h (5 Bft) 97,87 %
25.01.2018 02:20 8,4 C 7,2 C 6,7 C 94 % 15 lf 1010,7 hPa 0,0 l/m 0 min 2 min 0 W/m 24,8 km/h (4 Bft) 97,87 %
25.01.2018 02:22 8,4 C 7,2 C 6,7 C 94 % 15 lf 1010,7 hPa 0,0 l/m 0 min 2 min 0 W/m 31,5 km/h (5 Bft) 97,87 %
25.01.2018 02:24 8,3 C 7,2 C 6,7 C 94 % 15 lf 1010,7 hPa 0,0 l/m 0 min 2 min 0 W/m 20,3 km/h (4 Bft) 95,74 %
25.01.2018 02:26 8,3 C 7,2 C 6,7 C 94 % 15 lf 1010,7 hPa 0,0 l/m 0 min 2 min 0 W/m 18,0 km/h (3 Bft) 95,65 %
25.01.2018 02:28 8,3 C 7,2 C 6,7 C 94 % 15 lf 1010,8 hPa 0,0 l/m 0 min 2 min 0 W/m 27,0 km/h (4 Bft) 95,74 %
25.01.2018 02:30 8,3 C 7,2 C 6,7 C 94 % 15 lf 1010,8 hPa 0,0 l/m 0 min 2 min 0 W/m 24,8 km/h (4 Bft) 97,87 %
25.01.2018 02:32 8,2 C 7,2 C 6,7 C 94 % 15 lf 1010,7 hPa 0,2 l/m 0 min 2 min 0 W/m 18,0 km/h (3 Bft) 97,87 %
25.01.2018 02:34 8,2 C 7,2 C 6,7 C 94 % 15 lf 1010,7 hPa 0,0 l/m 0 min 2 min 0 W/m 22,5 km/h (4 Bft) 97,87 %
25.01.2018 02:36 8,2 C 7,2 C 6,7 C 94 % 15 lf 1010,7 hPa 0,0 l/m 0 min 2 min 0 W/m 18,0 km/h (3 Bft) 100,00 %
25.01.2018 02:38 8,2 C 7,2 C 6,7 C 95 % 15 lf 1010,7 hPa 0,0 l/m 0 min 2 min 0 W/m 24,8 km/h (4 Bft) 97,83 %
25.01.2018 02:40 8,1 C 7,2 C 6,7 C 95 % 15 lf 1010,8 hPa 0,0 l/m 0 min 2 min 0 W/m 24,8 km/h (4 Bft) 97,87 %
25.01.2018 02:42 8,1 C 7,2 C 6,7 C 94 % 15 lf 1010,8 hPa 0,0 l/m 0 min 2 min 0 W/m 27,0 km/h (4 Bft) 97,87 %
25.01.2018 02:44 8,1 C 7,2 C 6,7 C 95 % 15 lf 1010,9 hPa 0,0 l/m 0 min 0 min 0 W/m 22,5 km/h (4 Bft) 100,00 %
25.01.2018 02:46 8,1 C 7,2 C 6,7 C 95 % 15 lf 1010,8 hPa 0,0 l/m 0 min 2 min 0 W/m 27,0 km/h (4 Bft) 100,00 %
25.01.2018 02:48 8,1 C 7,2 C 6,7 C 95 % 15 lf 1010,8 hPa 0,0 l/m 0 min 2 min 0 W/m 20,3 km/h (4 Bft) 97,83 %
25.01.2018 02:50 8,0 C 7,2 C 6,7 C 95 % 15 lf 1010,9 hPa 0,0 l/m 0 min 2 min 0 W/m 27,0 km/h (4 Bft) 100,00 %
25.01.2018 02:52 8,0 C 7,2 C 6,7 C 95 % 15 lf 1010,9 hPa 0,0 l/m 0 min 2 min 0 W/m 27,0 km/h (4 Bft) 100,00 %
25.01.2018 02:54 7,9 C 7,2 C 6,7 C 95 % 15 lf 1010,9 hPa 0,0 l/m 0 min 2 min 0 W/m 24,8 km/h (4 Bft) 95,74 %
25.01.2018 02:56 7,9 C 7,2 C 6,1 C 95 % 15 lf 1010,8 hPa 0,0 l/m 0 min 2 min 0 W/m 20,3 km/h (4 Bft) 100,00 %
25.01.2018 02:58 7,9 C 7,2 C 6,7 C 95 % 15 lf 1010,8 hPa 0,0 l/m 0 min 2 min 0 W/m 15,8 km/h (3 Bft) 97,87 %
25.01.2018 03:00 7,9 C 7,2 C 6,7 C 95 % 15 lf 1010,9 hPa 0,0 l/m 0 min 2 min 0 W/m 18,0 km/h (3 Bft) 95,74 %
25.01.2018 03:02 7,9 C 7,2 C 6,7 C 95 % 15 lf 1010,9 hPa 0,0 l/m 0 min 0 min 0 W/m 18,0 km/h (3 Bft) 97,83 %
25.01.2018 03:04 7,9 C 7,2 C 6,7 C 95 % 15 lf 1010,9 hPa 0,0 l/m 0 min 0 min 0 W/m 18,0 km/h (3 Bft) 97,87 %
25.01.2018 03:06 7,9 C 7,2 C 6,1 C 95 % 15 lf 1010,9 hPa 0,0 l/m 0 min 2 min 0 W/m 20,3 km/h (4 Bft) 97,87 %
25.01.2018 03:08 7,9 C 7,2 C 6,1 C 95 % 15 lf 1011,0 hPa 0,0 l/m 0 min 2 min 0 W/m 18,0 km/h (3 Bft) 97,87 %
25.01.2018 03:10 7,9 C 7,2 C 6,1 C 95 % 15 lf 1011,0 hPa 0,0 l/m 0 min 2 min 0 W/m 15,8 km/h (3 Bft) 97,87 %
25.01.2018 03:12 7,8 C 7,2 C 6,1 C 95 % 15 lf 1011,1 hPa 0,0 l/m 0 min 2 min 0 W/m 22,5 km/h (4 Bft) 97,83 %
25.01.2018 03:14 7,8 C 7,2 C 6,1 C 95 % 15 lf 1011,0 hPa 0,0 l/m 0 min 2 min 0 W/m 24,8 km/h (4 Bft) 97,87 %
25.01.2018 03:16 7,8 C 7,2 C 6,1 C 95 % 15 lf 1011,0 hPa 0,0 l/m 0 min 2 min 0 W/m 22,5 km/h (4 Bft) 97,87 %
25.01.2018 03:18 7,8 C 7,2 C 6,1 C 95 % 15 lf 1011,0 hPa 0,2 l/m 0 min 2 min 0 W/m 13,5 km/h (3 Bft) 95,74 %
25.01.2018 03:20 7,8 C 7,2 C 6,1 C 95 % 15 lf 1011,0 hPa 0,0 l/m 0 min 2 min 0 W/m 15,8 km/h (3 Bft) 93,62 %
25.01.2018 03:22 7,8 C 7,2 C 6,1 C 95 % 15 lf 1011,0 hPa 0,0 l/m 0 min 2 min 0 W/m 15,8 km/h (3 Bft) 95,74 %
25.01.2018 03:24 7,8 C 7,2 C 6,1 C 95 % 15 lf 1011,0 hPa 0,0 l/m 0 min 2 min 0 W/m 15,8 km/h (3 Bft) 95,65 %
25.01.2018 03:26 7,7 C 7,2 C 6,1 C 96 % 15 lf 1011,1 hPa 0,0 l/m 0 min 2 min 0 W/m 20,3 km/h (4 Bft) 93,62 %
25.01.2018 03:28 7,7 C 7,2 C 6,1 C 96 % 15 lf 1011,0 hPa 0,0 l/m 0 min 0 min 0 W/m 22,5 km/h (4 Bft) 95,74 %
25.01.2018 03:30 7,7 C 7,2 C 6,1 C 96 % 15 lf 1011,0 hPa 0,0 l/m 0 min 0 min 0 W/m 20,3 km/h (4 Bft) 97,87 %
25.01.2018 03:32 7,7 C 7,2 C 6,1 C 96 % 15 lf 1011,1 hPa 0,0 l/m 0 min 0 min 0 W/m 18,0 km/h (3 Bft) 95,74 %
25.01.2018 03:34 7,7 C 7,2 C 6,1 C 96 % 15 lf 1011,1 hPa 0,0 l/m 0 min 0 min 0 W/m 18,0 km/h (3 Bft) 97,87 %
25.01.2018 03:36 7,7 C 7,2 C 6,1 C 96 % 15 lf 1011,1 hPa 0,0 l/m 0 min 0 min 0 W/m 20,3 km/h (4 Bft) 95,65 %
25.01.2018 03:38 7,7 C 7,2 C 6,1 C 96 % 15 lf 1011,1 hPa 0,0 l/m 0 min 0 min 0 W/m 15,8 km/h (3 Bft) 93,62 %
25.01.2018 03:40 7,7 C 7,2 C 6,1 C 96 % 15 lf 1011,0 hPa 0,0 l/m 0 min 0 min 0 W/m 18,0 km/h (3 Bft) 91,49 %
25.01.2018 03:42 7,7 C 7,2 C 6,1 C 96 % 15 lf 1011,1 hPa 0,0 l/m 0 min 0 min 0 W/m 20,3 km/h (4 Bft) 95,74 %
25.01.2018 03:44 7,7 C 7,2 C 6,1 C 96 % 15 lf 1011,2 hPa 0,0 l/m 0 min 0 min 0 W/m 13,5 km/h (3 Bft) 97,87 %
25.01.2018 03:46 7,7 C 7,2 C 6,1 C 96 % 15 lf 1011,2 hPa 0,0 l/m 0 min 0 min 0 W/m 13,5 km/h (3 Bft) 97,83 %
25.01.2018 03:48 7,7 C 7,2 C 6,1 C 96 % 15 lf 1011,3 hPa 0,0 l/m 0 min 2 min 0 W/m 15,8 km/h (3 Bft) 97,87 %
25.01.2018 03:50 7,7 C 7,2 C 6,1 C 96 % 15 lf 1011,2 hPa 0,0 l/m 0 min 2 min 0 W/m 24,8 km/h (4 Bft) 95,74 %
25.01.2018 03:52 7,7 C 7,2 C 6,1 C 96 % 15 lf 1011,1 hPa 0,0 l/m 0 min 2 min 0 W/m 15,8 km/h (3 Bft) 95,74 %
25.01.2018 03:54 7,7 C 7,2 C 6,1 C 96 % 15 lf 1011,2 hPa 0,0 l/m 0 min 2 min 0 W/m 18,0 km/h (3 Bft) 95,74 %
25.01.2018 03:56 7,7 C 7,2 C 6,1 C 96 % 15 lf 1011,1 hPa 0,0 l/m 0 min 2 min 0 W/m 15,8 km/h (3 Bft) 93,62 %
25.01.2018 03:58 7,6 C 7,2 C 6,1 C 96 % 15 lf 1011,1 hPa 0,0 l/m 0 min 2 min 0 W/m 20,3 km/h (4 Bft) 93,48 %
25.01.2018 04:00 7,6 C 6,7 C 6,1 C 96 % 15 lf 1011,1 hPa 0,0 l/m 0 min 0 min 0 W/m 15,8 km/h (3 Bft) 95,74 %
25.01.2018 04:05 7,6 C 7,2 C 6,1 C 96 % 15 lf 1011,1 hPa 0,0 l/m 0 min 0 min 0 W/m 15,8 km/h (3 Bft) 100,00 %
25.01.2018 04:06 7,6 C 6,7 C 6,1 C 96 % 15 lf 1011,1 hPa 0,0 l/m 0 min 0 min 0 W/m 15,8 km/h (3 Bft) 91,67 %
25.01.2018 04:08 7,6 C 7,2 C 6,1 C 96 % 15 lf 1011,1 hPa 0,0 l/m 0 min 0 min 0 W/m 11,3 km/h (2 Bft) 97,87 %
25.01.2018 04:10 7,6 C 6,7 C 6,1 C 96 % 15 lf 1011,1 hPa 0,0 l/m 0 min 2 min 0 W/m 20,3 km/h (4 Bft) 95,65 %
25.01.2018 04:12 7,6 C 6,7 C 6,1 C 96 % 15 lf 1011,1 hPa 0,0 l/m 0 min 0 min 0 W/m 15,8 km/h (3 Bft) 95,74 %
25.01.2018 04:14 7,6 C 7,2 C 6,1 C 96 % 15 lf 1011,0 hPa 0,0 l/m 0 min 0 min 0 W/m 15,8 km/h (3 Bft) 95,74 %
25.01.2018 04:16 7,6 C 6,7 C 6,1 C 96 % 15 lf 1011,0 hPa 0,0 l/m 0 min 0 min 0 W/m 15,8 km/h (3 Bft) 91,49 %
25.01.2018 04:18 7,6 C 6,7 C 6,1 C 96 % 15 lf 1010,9 hPa 0,0 l/m 0 min 0 min 0 W/m 13,5 km/h (3 Bft) 93,62 %
25.01.2018 04:20 7,6 C 6,7 C 6,1 C 96 % 15 lf 1011,1 hPa 0,0 l/m 0 min 0 min 0 W/m 15,8 km/h (3 Bft) 93,62 %
25.01.2018 04:22 7,6 C 6,7 C 6,1 C 96 % 15 lf 1011,1 hPa 0,0 l/m 0 min 0 min 0 W/m 15,8 km/h (3 Bft) 91,30 %
25.01.2018 04:24 7,6 C 6,7 C 6,1 C 96 % 15 lf 1011,2 hPa 0,0 l/m 0 min 0 min 0 W/m 13,5 km/h (3 Bft) 95,74 %
25.01.2018 04:26 7,6 C 6,7 C 6,1 C 96 % 15 lf 1011,1 hPa 0,0 l/m 0 min 0 min 0 W/m 9,0 km/h (2 Bft) 95,74 %
25.01.2018 04:28 7,6 C 6,7 C 6,1 C 96 % 15 lf 1011,1 hPa 0,0 l/m 0 min 0 min 0 W/m 9,0 km/h (2 Bft) 89,36 %
25.01.2018 04:30 7,6 C 6,7 C 6,1 C 96 % 15 lf 1011,2 hPa 0,0 l/m 0 min 0 min 0 W/m 15,8 km/h (3 Bft) 95,74 %
25.01.2018 04:32 7,6 C 6,7 C 6,1 C 96 % 15 lf 1011,2 hPa 0,0 l/m 0 min 0 min 0 W/m 15,8 km/h (3 Bft) 95,74 %
25.01.2018 04:34 7,6 C 6,7 C 6,1 C 96 % 15 lf 1011,2 hPa 0,0 l/m 0 min 2 min 0 W/m 15,8 km/h (3 Bft) 93,48 %
25.01.2018 04:36 7,6 C 6,7 C 6,1 C 96 % 15 lf 1011,3 hPa 0,0 l/m 0 min 2 min 0 W/m 15,8 km/h (3 Bft) 95,74 %
25.01.2018 04:38 7,6 C 6,7 C 6,1 C 96 % 15 lf 1011,2 hPa 0,0 l/m 0 min 2 min 0 W/m 15,8 km/h (3 Bft) 91,49 %
25.01.2018 04:40 7,6 C 6,7 C 6,1 C 96 % 15 lf 1011,3 hPa 0,0 l/m 0 min 0 min 0 W/m 22,5 km/h (4 Bft) 93,62 %
25.01.2018 04:42 7,6 C 6,7 C 6,1 C 96 % 15 lf 1011,3 hPa 0,0 l/m 0 min 0 min 0 W/m 20,3 km/h (4 Bft) 93,62 %
25.01.2018 04:44 7,5 C 6,7 C 6,1 C 96 % 15 lf 1011,3 hPa 0,0 l/m 0 min 2 min 0 W/m 15,8 km/h (3 Bft) 95,74 %
25.01.2018 04:46 7,6 C 6,7 C 6,1 C 96 % 15 lf 1011,4 hPa 0,0 l/m 0 min 0 min 0 W/m 15,8 km/h (3 Bft) 95,65 %
25.01.2018 04:48 7,5 C 6,7 C 6,1 C 96 % 15 lf 1011,3 hPa 0,0 l/m 0 min 2 min 0 W/m 13,5 km/h (3 Bft) 95,74 %
25.01.2018 04:50 7,5 C 6,7 C 6,1 C 96 % 15 lf 1011,3 hPa 0,0 l/m 0 min 2 min 0 W/m 13,5 km/h (3 Bft) 93,62 %
25.01.2018 04:52 7,5 C 6,7 C 6,1 C 96 % 15 lf 1011,2 hPa 0,0 l/m 0 min 2 min 0 W/m 13,5 km/h (3 Bft) 95,74 %
25.01.2018 04:54 7,5 C 6,7 C 6,1 C 96 % 15 lf 1011,3 hPa 0,0 l/m 0 min 2 min 0 W/m 13,5 km/h (3 Bft) 95,74 %
25.01.2018 04:56 7,5 C 6,7 C 6,1 C 96 % 15 lf 1011,3 hPa 0,0 l/m 0 min 2 min 0 W/m 15,8 km/h (3 Bft) 95,65 %
25.01.2018 04:58 7,5 C 6,7 C 6,1 C 96 % 15 lf 1011,3 hPa 0,0 l/m 0 min 2 min 0 W/m 11,3 km/h (2 Bft) 93,62 %
25.01.2018 05:00 7,5 C 6,7 C 6,1 C 96 % 15 lf 1011,4 hPa 0,0 l/m 0 min 2 min 0 W/m 15,8 km/h (3 Bft) 91,49 %
25.01.2018 05:02 7,5 C 6,7 C 6,1 C 96 % 15 lf 1011,4 hPa 0,2 l/m 0 min 2 min 0 W/m 18,0 km/h (3 Bft) 93,62 %
25.01.2018 05:04 7,5 C 6,7 C 6,1 C 96 % 15 lf 1011,5 hPa 0,0 l/m 0 min 2 min 0 W/m 13,5 km/h (3 Bft) 95,74 %
25.01.2018 05:06 7,5 C 6,7 C 6,1 C 96 % 15 lf 1011,5 hPa 0,0 l/m 0 min 0 min 0 W/m 20,3 km/h (4 Bft) 95,74 %
25.01.2018 05:08 7,4 C 6,7 C 6,1 C 96 % 15 lf 1011,5 hPa 0,0 l/m 0 min 0 min 0 W/m 15,8 km/h (3 Bft) 95,65 %
25.01.2018 05:10 7,4 C 6,7 C 6,1 C 96 % 15 lf 1011,5 hPa 0,0 l/m 0 min 0 min 0 W/m 15,8 km/h (3 Bft) 97,87 %
25.01.2018 05:12 7,4 C 6,7 C 6,1 C 96 % 15 lf 1011,5 hPa 0,0 l/m 0 min 0 min 0 W/m 15,8 km/h (3 Bft) 95,74 %
25.01.2018 05:14 7,4 C 6,7 C 6,1 C 96 % 15 lf 1011,5 hPa 0,0 l/m 0 min 0 min 0 W/m 11,3 km/h (2 Bft) 95,74 %
25.01.2018 05:16 7,4 C 6,7 C 6,1 C 96 % 15 lf 1011,6 hPa 0,0 l/m 0 min 0 min 0 W/m 20,3 km/h (4 Bft) 97,87 %
25.01.2018 05:18 7,4 C 6,7 C 6,1 C 96 % 15 lf 1011,6 hPa 0,0 l/m 0 min 0 min 0 W/m 13,5 km/h (3 Bft) 97,87 %
25.01.2018 05:20 7,4 C 6,7 C 6,1 C 96 % 15 lf 1011,6 hPa 0,0 l/m 0 min 0 min 0 W/m 13,5 km/h (3 Bft) 95,65 %
25.01.2018 05:22 7,4 C 6,7 C 6,1 C 96 % 15 lf 1011,6 hPa 0,0 l/m 0 min 0 min 0 W/m 13,5 km/h (3 Bft) 100,00 %
25.01.2018 05:24 7,4 C 6,7 C 6,1 C 96 % 15 lf 1011,6 hPa 0,0 l/m 0 min 0 min 0 W/m 11,3 km/h (2 Bft) 100,00 %
25.01.2018 05:26 7,4 C 6,7 C 5,6 C 96 % 15 lf 1011,5 hPa 0,0 l/m 0 min 0 min 0 W/m 9,0 km/h (2 Bft) 100,00 %
25.01.2018 05:28 7,4 C 6,7 C 5,6 C 96 % 15 lf 1011,6 hPa 0,0 l/m 0 min 0 min 0 W/m 13,5 km/h (3 Bft) 97,87 %
25.01.2018 05:30 7,4 C 6,7 C 5,6 C 96 % 15 lf 1011,5 hPa 0,0 l/m 0 min 0 min 0 W/m 9,0 km/h (2 Bft) 100,00 %
25.01.2018 05:32 7,4 C 6,7 C 5,6 C 96 % 15 lf 1011,6 hPa 0,0 l/m 0 min 0 min 0 W/m 11,3 km/h (2 Bft) 95,65 %
25.01.2018 05:34 7,3 C 6,7 C 5,6 C 96 % 15 lf 1011,6 hPa 0,0 l/m 0 min 0 min 0 W/m 13,5 km/h (3 Bft) 97,87 %
25.01.2018 05:35 7,3 C 6,7 C 5,6 C 96 % 15 lf 1011,5 hPa 0,0 l/m 0 min 0 min 0 W/m 13,5 km/h (3 Bft) 98,25 %
25.01.2018 05:40 7,3 C 6,7 C 5,6 C 96 % 15 lf 1011,6 hPa 0,0 l/m 0 min 0 min 0 W/m 13,5 km/h (3 Bft) 100,00 %
25.01.2018 05:45 7,3 C 6,7 C 5,6 C 96 % 15 lf 1011,5 hPa 0,0 l/m 0 min 0 min 0 W/m 15,8 km/h (3 Bft) 100,00 %
25.01.2018 05:46 7,3 C 6,7 C 5,6 C 96 % 15 lf 1011,5 hPa 0,0 l/m 0 min 0 min 0 W/m 6,8 km/h (2 Bft) 100,00 %
25.01.2018 05:48 7,3 C 6,7 C 5,6 C 96 % 15 lf 1011,4 hPa 0,0 l/m 0 min 0 min 0 W/m 6,8 km/h (2 Bft) 97,83 %
25.01.2018 05:50 7,3 C 6,7 C 5,6 C 96 % 15 lf 1011,6 hPa 0,0 l/m 0 min 0 min 0 W/m 13,5 km/h (3 Bft) 100,00 %
25.01.2018 05:52 7,2 C 6,7 C 5,6 C 96 % 15 lf 1011,7 hPa 0,0 l/m 0 min 0 min 0 W/m 11,3 km/h (2 Bft) 100,00 %
25.01.2018 05:54 7,2 C 6,7 C 5,6 C 96 % 15 lf 1011,6 hPa 0,0 l/m 0 min 0 min 0 W/m 15,8 km/h (3 Bft) 100,00 %
25.01.2018 05:56 7,2 C 6,7 C 5,6 C 96 % 15 lf 1011,6 hPa 0,0 l/m 0 min 0 min 0 W/m 9,0 km/h (2 Bft) 100,00 %
25.01.2018 05:58 7,2 C 6,7 C 5,6 C 96 % 15 lf 1011,5 hPa 0,0 l/m 0 min 0 min 0 W/m 11,3 km/h (2 Bft) 97,87 %
25.01.2018 06:00 7,2 C 6,7 C 5,6 C 96 % 15 lf 1011,5 hPa 0,0 l/m 0 min 0 min 0 W/m 9,0 km/h (2 Bft) 100,00 %
25.01.2018 06:02 7,2 C 6,7 C 5,6 C 96 % 15 lf 1011,5 hPa 0,0 l/m 0 min 0 min 0 W/m 15,8 km/h (3 Bft) 97,87 %
25.01.2018 06:04 7,2 C 6,7 C 5,6 C 96 % 15 lf 1011,4 hPa 0,0 l/m 0 min 0 min 0 W/m 11,3 km/h (2 Bft) 100,00 %
25.01.2018 06:06 7,2 C 6,7 C 5,6 C 96 % 15 lf 1011,4 hPa 0,0 l/m 0 min 0 min 0 W/m 9,0 km/h (2 Bft) 100,00 %
25.01.2018 06:08 7,2 C 6,7 C 5,6 C 96 % 15 lf 1011,3 hPa 0,0 l/m 0 min 0 min 0 W/m 6,8 km/h (2 Bft) 100,00 %
25.01.2018 06:10 7,2 C 6,7 C 5,6 C 96 % 15 lf 1011,4 hPa 0,0 l/m 0 min 0 min 0 W/m 11,3 km/h (2 Bft) 100,00 %
25.01.2018 06:12 7,2 C 6,7 C 5,6 C 96 % 15 lf 1011,4 hPa 0,0 l/m 0 min 0 min 0 W/m 6,8 km/h (2 Bft) 97,87 %
25.01.2018 06:14 7,2 C 6,7 C 5,6 C 96 % 15 lf 1011,4 hPa 0,0 l/m 0 min 0 min 0 W/m 11,3 km/h (2 Bft) 100,00 %
25.01.2018 06:16 7,1 C 6,7 C 5,6 C 96 % 15 lf 1011,3 hPa 0,0 l/m 0 min 0 min 0 W/m 13,5 km/h (3 Bft) 93,48 %
25.01.2018 06:18 7,1 C 6,7 C 5,6 C 96 % 15 lf 1011,4 hPa 0,0 l/m 0 min 0 min 0 W/m 11,3 km/h (2 Bft) 100,00 %
25.01.2018 06:20 7,1 C 6,7 C 5,6 C 96 % 15 lf 1011,4 hPa 0,0 l/m 0 min 0 min 0 W/m 11,3 km/h (2 Bft) 100,00 %
25.01.2018 06:22 7,1 C 6,7 C 5,6 C 96 % 15 lf 1011,3 hPa 0,0 l/m 0 min 0 min 0 W/m 6,8 km/h (2 Bft) 100,00 %
25.01.2018 06:24 7,1 C 6,7 C 5,6 C 96 % 15 lf 1011,4 hPa 0,0 l/m 0 min 0 min 0 W/m 9,0 km/h (2 Bft) 97,87 %
25.01.2018 06:26 7,1 C 6,7 C 5,6 C 96 % 15 lf 1011,4 hPa 0,0 l/m 0 min 0 min 0 W/m 15,8 km/h (3 Bft) 100,00 %
25.01.2018 06:28 7,1 C 6,7 C 5,6 C 96 % 15 lf 1011,4 hPa 0,0 l/m 0 min 0 min 0 W/m 9,0 km/h (2 Bft) 100,00 %
25.01.2018 06:30 7,1 C 6,7 C 5,6 C 96 % 15 lf 1011,3 hPa 0,0 l/m 0 min 0 min 0 W/m 6,8 km/h (2 Bft) 100,00 %
25.01.2018 06:32 7,1 C 6,7 C 5,6 C 96 % 15 lf 1011,3 hPa 0,0 l/m 0 min 0 min 0 W/m 6,8 km/h (2 Bft) 97,87 %
25.01.2018 06:34 7,1 C 6,7 C 5,6 C 96 % 15 lf 1011,4 hPa 0,0 l/m 0 min 0 min 0 W/m 11,3 km/h (2 Bft) 100,00 %
25.01.2018 06:36 7,1 C 6,7 C 5,6 C 96 % 15 lf 1011,4 hPa 0,0 l/m 0 min 0 min 0 W/m 6,8 km/h (2 Bft) 97,87 %
25.01.2018 06:38 7,1 C 6,7 C 5,6 C 96 % 15 lf 1011,4 hPa 0,0 l/m 0 min 0 min 0 W/m 18,0 km/h (3 Bft) 97,87 %
25.01.2018 06:40 7,1 C 6,7 C 5,6 C 96 % 15 lf 1011,4 hPa 0,0 l/m 0 min 0 min 0 W/m 11,3 km/h (2 Bft) 97,83 %
25.01.2018 06:42 7,1 C 6,7 C 5,6 C 96 % 15 lf 1011,4 hPa 0,0 l/m 0 min 0 min 0 W/m 13,5 km/h (3 Bft) 100,00 %
25.01.2018 06:44 7,1 C 6,7 C 5,6 C 96 % 15 lf 1011,4 hPa 0,0 l/m 0 min 0 min 0 W/m 11,3 km/h (2 Bft) 95,74 %
25.01.2018 06:46 7,1 C 6,7 C 5,6 C 96 % 15 lf 1011,4 hPa 0,0 l/m 0 min 0 min 0 W/m 11,3 km/h (2 Bft) 97,87 %
25.01.2018 06:48 7,1 C 6,7 C 5,6 C 96 % 15 lf 1011,4 hPa 0,0 l/m 0 min 0 min 0 W/m 11,3 km/h (2 Bft) 91,49 %
25.01.2018 06:50 7,1 C 6,7 C 5,6 C 96 % 15 lf 1011,4 hPa 0,0 l/m 0 min 0 min 0 W/m 9,0 km/h (2 Bft) 95,74 %
25.01.2018 06:52 7,1 C 6,7 C 5,6 C 96 % 15 lf 1011,4 hPa 0,0 l/m 0 min 0 min 0 W/m 9,0 km/h (2 Bft) 93,48 %
25.01.2018 06:54 7,1 C 6,7 C 5,6 C 96 % 15 lf 1011,5 hPa 0,0 l/m 0 min 0 min 0 W/m 15,8 km/h (3 Bft) 93,62 %
25.01.2018 06:56 7,1 C 6,7 C 5,6 C 96 % 15 lf 1011,5 hPa 0,0 l/m 0 min 0 min 0 W/m 9,0 km/h (2 Bft) 91,49 %
25.01.2018 06:58 7,2 C 6,7 C 5,6 C 96 % 15 lf 1011,5 hPa 0,0 l/m 0 min 0 min 0 W/m 9,0 km/h (2 Bft) 93,62 %
25.01.2018 07:00 7,2 C 6,7 C 5,6 C 96 % 15 lf 1011,6 hPa 0,0 l/m 0 min 0 min 0 W/m 11,3 km/h (2 Bft) 91,49 %
25.01.2018 07:02 7,2 C 6,7 C 5,6 C 96 % 15 lf 1011,6 hPa 0,0 l/m 0 min 0 min 0 W/m 6,8 km/h (2 Bft) 93,62 %
25.01.2018 07:04 7,2 C 6,7 C 5,6 C 96 % 15 lf 1011,5 hPa 0,0 l/m 0 min 0 min 0 W/m 11,3 km/h (2 Bft) 93,48 %
25.01.2018 07:06 7,1 C 6,7 C 5,6 C 96 % 15 lf 1011,6 hPa 0,0 l/m 0 min 0 min 0 W/m 13,5 km/h (3 Bft) 93,62 %
25.01.2018 07:08 7,2 C 6,7 C 5,6 C 96 % 15 lf 1011,7 hPa 0,0 l/m 0 min 0 min 0 W/m 11,3 km/h (2 Bft) 93,62 %
25.01.2018 07:10 7,2 C 6,7 C 5,6 C 96 % 15 lf 1011,6 hPa 0,0 l/m 0 min 0 min 0 W/m 11,3 km/h (2 Bft) 93,62 %
25.01.2018 07:12 7,2 C 6,7 C 5,6 C 96 % 15 lf 1011,6 hPa 0,0 l/m 0 min 0 min 0 W/m 15,8 km/h (3 Bft) 93,62 %
25.01.2018 07:14 7,2 C 6,7 C 5,6 C 96 % 15 lf 1011,5 hPa 0,0 l/m 0 min 0 min 0 W/m 18,0 km/h (3 Bft) 87,23 %
25.01.2018 07:16 7,2 C 6,7 C 5,6 C 96 % 15 lf 1011,5 hPa 0,0 l/m 0 min 0 min 0 W/m 11,3 km/h (2 Bft) 93,48 %
25.01.2018 07:18 7,2 C 6,7 C 5,6 C 96 % 15 lf 1011,6 hPa 0,0 l/m 0 min 0 min 0 W/m 9,0 km/h (2 Bft) 93,62 %
25.01.2018 07:20 7,2 C 6,7 C 5,6 C 96 % 15 lf 1011,6 hPa 0,0 l/m 0 min 0 min 0 W/m 15,8 km/h (3 Bft) 93,62 %
25.01.2018 07:22 7,1 C 6,7 C 5,6 C 96 % 15 lf 1011,6 hPa 0,0 l/m 0 min 0 min 0 W/m 11,3 km/h (2 Bft) 93,62 %
25.01.2018 07:24 7,2 C 6,7 C 5,6 C 96 % 15 lf 1011,6 hPa 0,0 l/m 0 min 0 min 0 W/m 13,5 km/h (3 Bft) 93,62 %
25.01.2018 07:26 7,2 C 6,7 C 5,6 C 96 % 15 lf 1011,7 hPa 0,0 l/m 0 min 0 min 0 W/m 15,8 km/h (3 Bft) 91,30 %
25.01.2018 07:28 7,2 C 6,7 C 5,6 C 96 % 15 lf 1011,7 hPa 0,0 l/m 0 min 0 min 0 W/m 13,5 km/h (3 Bft) 91,49 %
25.01.2018 07:30 7,2 C 6,7 C 5,6 C 96 % 15 lf 1011,8 hPa 0,0 l/m 0 min 0 min 0 W/m 13,5 km/h (3 Bft) 91,49 %
25.01.2018 07:32 7,2 C 6,7 C 5,6 C 96 % 14 lf 1011,7 hPa 0,0 l/m 0 min 0 min 0 W/m 11,3 km/h (2 Bft) 89,36 %
25.01.2018 07:34 7,2 C 6,7 C 5,6 C 96 % 15 lf 1011,8 hPa 0,0 l/m 0 min 0 min 0 W/m 11,3 km/h (2 Bft) 89,36 %
25.01.2018 07:36 7,2 C 6,7 C 5,6 C 96 % 14 lf 1011,7 hPa 0,0 l/m 0 min 0 min 0 W/m 15,8 km/h (3 Bft) 95,74 %
25.01.2018 07:38 7,2 C 6,7 C 5,6 C 96 % 14 lf 1011,7 hPa 0,0 l/m 0 min 0 min 0 W/m 11,3 km/h (2 Bft) 95,65 %
25.01.2018 07:40 7,2 C 6,7 C 5,6 C 96 % 14 lf 1011,7 hPa 0,0 l/m 0 min 0 min 0 W/m 9,0 km/h (2 Bft) 95,74 %
25.01.2018 07:42 7,2 C 6,7 C 5,6 C 96 % 14 lf 1011,8 hPa 0,0 l/m 0 min 0 min 0 W/m 13,5 km/h (3 Bft) 97,87 %
25.01.2018 07:44 7,2 C 6,7 C 5,6 C 96 % 14 lf 1011,9 hPa 0,0 l/m 0 min 0 min 0 W/m 18,0 km/h (3 Bft) 97,87 %
25.01.2018 07:46 7,2 C 6,7 C 5,6 C 96 % 14 lf 1011,8 hPa 0,0 l/m 0 min 0 min 0 W/m 13,5 km/h (3 Bft) 95,74 %
25.01.2018 07:48 7,2 C 6,7 C 5,6 C 96 % 14 lf 1011,9 hPa 0,0 l/m 0 min 0 min 0 W/m 15,8 km/h (3 Bft) 95,74 %
25.01.2018 07:50 7,2 C 6,7 C 5,6 C 96 % 13 lf 1011,8 hPa 0,0 l/m 0 min 0 min 0 W/m 15,8 km/h (3 Bft) 97,83 %
25.01.2018 07:52 7,2 C 6,7 C 5,6 C 96 % 13 lf 1011,8 hPa 0,0 l/m 0 min 0 min 0 W/m 13,5 km/h (3 Bft) 97,87 %
25.01.2018 07:54 7,2 C 6,7 C 5,6 C 96 % 13 lf 1011,6 hPa 0,0 l/m 0 min 0 min 0 W/m 9,0 km/h (2 Bft) 97,87 %
25.01.2018 07:56 7,2 C 6,7 C 5,6 C 96 % 13 lf 1011,6 hPa 0,0 l/m 0 min 0 min 0 W/m 11,3 km/h (2 Bft) 97,87 %
25.01.2018 07:58 7,2 C 6,7 C 5,6 C 96 % 13 lf 1011,6 hPa 0,0 l/m 0 min 0 min 0 W/m 15,8 km/h (3 Bft) 97,87 %
25.01.2018 08:00 7,2 C 6,7 C 5,6 C 96 % 12 lf 1011,6 hPa 0,0 l/m 0 min 0 min 0 W/m 13,5 km/h (3 Bft) 95,74 %
25.01.2018 08:02 7,2 C 6,7 C 5,6 C 96 % 12 lf 1011,5 hPa 0,0 l/m 0 min 0 min 0 W/m 9,0 km/h (2 Bft) 97,83 %
25.01.2018 08:04 7,2 C 6,7 C 5,6 C 96 % 12 lf 1011,6 hPa 0,0 l/m 0 min 0 min 0 W/m 11,3 km/h (2 Bft) 95,74 %
25.01.2018 08:06 7,2 C 6,7 C 5,6 C 96 % 12 lf 1011,6 hPa 0,0 l/m 0 min 0 min 0 W/m 6,8 km/h (2 Bft) 95,74 %
25.01.2018 08:08 7,2 C 6,7 C 5,6 C 96 % 11 lf 1011,6 hPa 0,0 l/m 0 min 0 min 0 W/m 15,8 km/h (3 Bft) 95,74 %
25.01.2018 08:10 7,2 C 6,7 C 5,6 C 96 % 11 lf 1011,7 hPa 0,0 l/m 0 min 0 min 0 W/m 9,0 km/h (2 Bft) 97,87 %
25.01.2018 08:12 7,2 C 6,7 C 5,6 C 96 % 11 lf 1011,6 hPa 0,0 l/m 0 min 0 min 0 W/m 9,0 km/h (2 Bft) 97,87 %
25.01.2018 08:14 7,2 C 6,7 C 5,6 C 96 % 12 lf 1011,7 hPa 0,0 l/m 0 min 0 min 0 W/m 6,8 km/h (2 Bft) 97,83 %
25.01.2018 08:16 7,2 C 6,7 C 5,6 C 96 % 11 lf 1011,6 hPa 0,0 l/m 0 min 0 min 0 W/m 13,5 km/h (3 Bft) 97,87 %
25.01.2018 08:18 7,2 C 6,7 C 5,6 C 96 % 11 lf 1011,9 hPa 0,0 l/m 0 min 0 min 0 W/m 9,0 km/h (2 Bft) 95,74 %
25.01.2018 08:20 7,2 C 6,7 C 5,6 C 96 % 11 lf 1011,9 hPa 0,0 l/m 0 min 0 min 0 W/m 15,8 km/h (3 Bft) 97,87 %
25.01.2018 08:22 7,2 C 6,7 C 5,6 C 96 % 10 lf 1011,9 hPa 0,0 l/m 0 min 0 min 0 W/m 15,8 km/h (3 Bft) 100,00 %
25.01.2018 08:24 7,2 C 6,7 C 5,6 C 96 % 10 lf 1012,0 hPa 0,0 l/m 0 min 0 min 0 W/m 13,5 km/h (3 Bft) 97,87 %
25.01.2018 08:26 7,2 C 6,7 C 5,6 C 96 % 9 lf 1011,9 hPa 0,0 l/m 0 min 0 min 0 W/m 11,3 km/h (2 Bft) 100,00 %
25.01.2018 08:28 7,2 C 6,7 C 5,6 C 96 % 9 lf 1011,8 hPa 0,0 l/m 0 min 0 min 0 W/m 13,5 km/h (3 Bft) 100,00 %
25.01.2018 08:30 7,3 C 6,7 C 5,6 C 96 % 8 lf 1011,7 hPa 0,0 l/m 0 min 0 min 0 W/m 9,0 km/h (2 Bft) 97,87 %
25.01.2018 08:32 7,3 C 6,7 C 5,6 C 96 % 8 lf 1011,7 hPa 0,0 l/m 0 min 0 min 0 W/m 11,3 km/h (2 Bft) 97,87 %
25.01.2018 08:34 7,3 C 6,7 C 5,6 C 96 % 7 lf 1011,7 hPa 0,0 l/m 0 min 0 min 5 W/m 11,3 km/h (2 Bft) 97,87 %
25.01.2018 08:36 7,3 C 6,7 C 5,6 C 96 % 7 lf 1011,7 hPa 0,0 l/m 0 min 0 min 6 W/m 13,5 km/h (3 Bft) 97,87 %
25.01.2018 08:38 7,3 C 6,7 C 5,6 C 96 % 6 lf 1011,7 hPa 0,0 l/m 0 min 0 min 7 W/m 9,0 km/h (2 Bft) 97,83 %
25.01.2018 08:40 7,3 C 6,7 C 5,6 C 96 % 6 lf 1011,6 hPa 0,0 l/m 0 min 0 min 8 W/m 11,3 km/h (2 Bft) 93,62 %
25.01.2018 08:42 7,3 C 6,7 C 5,6 C 96 % 5 lf 1011,6 hPa 0,0 l/m 0 min 0 min 9 W/m 13,5 km/h (3 Bft) 97,87 %
25.01.2018 08:44 7,3 C 6,7 C 5,6 C 96 % 4 lf 1011,5 hPa 0,0 l/m 0 min 0 min 9 W/m 13,5 km/h (3 Bft) 97,87 %
25.01.2018 08:46 7,3 C 6,7 C 5,6 C 96 % 4 lf 1011,6 hPa 0,0 l/m 0 min 0 min 11 W/m 13,5 km/h (3 Bft) 97,87 %
25.01.2018 08:48 7,3 C 6,7 C 5,6 C 96 % 4 lf 1011,6 hPa 0,0 l/m 0 min 0 min 11 W/m 9,0 km/h (2 Bft) 95,74 %
25.01.2018 08:50 7,3 C 7,2 C 5,6 C 96 % 4 lf 1011,6 hPa 0,0 l/m 0 min 0 min 12 W/m 18,0 km/h (3 Bft) 97,83 %
25.01.2018 08:52 7,3 C 7,2 C 5,6 C 96 % 3 lf 1011,6 hPa 0,0 l/m 0 min 0 min 12 W/m 9,0 km/h (2 Bft) 95,74 %
25.01.2018 08:54 7,3 C 6,7 C 5,6 C 96 % 3 lf 1011,6 hPa 0,0 l/m 0 min 0 min 14 W/m 11,3 km/h (2 Bft) 97,87 %
25.01.2018 08:56 7,3 C 7,2 C 6,1 C 96 % 3 lf 1011,5 hPa 0,0 l/m 0 min 0 min 14 W/m 11,3 km/h (2 Bft) 97,87 %
25.01.2018 08:58 7,3 C 7,2 C 6,1 C 96 % 3 lf 1011,5 hPa 0,0 l/m 0 min 0 min 15 W/m 15,8 km/h (3 Bft) 97,87 %
25.01.2018 09:00 7,3 C 7,2 C 6,1 C 96 % 2 lf 1011,6 hPa 0,0 l/m 0 min 0 min 16 W/m 15,8 km/h (3 Bft) 95,74 %
25.01.2018 09:02 7,3 C 7,2 C 6,1 C 96 % 2 lf 1011,7 hPa 0,0 l/m 0 min 0 min 16 W/m 11,3 km/h (2 Bft) 97,87 %
25.01.2018 09:04 7,3 C 7,2 C 6,1 C 96 % 1 lf 1011,7 hPa 0,0 l/m 0 min 0 min 17 W/m 13,5 km/h (3 Bft) 97,87 %
25.01.2018 09:06 7,3 C 7,2 C 6,1 C 96 % 1 lf 1011,7 hPa 0,0 l/m 0 min 0 min 18 W/m 13,5 km/h (3 Bft) 97,87 %
25.01.2018 09:08 7,3 C 7,2 C 6,1 C 96 % 1 lf 1011,8 hPa 0,0 l/m 0 min 0 min 19 W/m 13,5 km/h (3 Bft) 100,00 %
25.01.2018 09:10 7,3 C 7,2 C 6,1 C 96 % 0 lf 1011,8 hPa 0,0 l/m 0 min 0 min 19 W/m 15,8 km/h (3 Bft) 100,00 %
25.01.2018 09:12 7,4 C 7,2 C 6,1 C 96 % 0 lf 1011,8 hPa 0,0 l/m 0 min 0 min 19 W/m 15,8 km/h (3 Bft) 100,00 %
25.01.2018 09:14 7,4 C 7,2 C 6,1 C 96 % 0 lf 1011,9 hPa 0,0 l/m 0 min 0 min 20 W/m 9,0 km/h (2 Bft) 97,87 %
25.01.2018 09:16 7,4 C 7,2 C 6,1 C 96 % 0 lf 1012,0 hPa 0,0 l/m 0 min 0 min 22 W/m 11,3 km/h (2 Bft) 97,87 %
25.01.2018 09:18 7,4 C 7,2 C 6,1 C 96 % 0 lf 1012,0 hPa 0,0 l/m 0 min 0 min 25 W/m 13,5 km/h (3 Bft) 100,00 %
25.01.2018 09:20 7,4 C 7,2 C 6,1 C 96 % 0 lf 1012,1 hPa 0,0 l/m 0 min 0 min 25 W/m 11,3 km/h (2 Bft) 100,00 %
25.01.2018 09:22 7,4 C 7,2 C 6,1 C 96 % 0 lf 1012,1 hPa 0,0 l/m 0 min 0 min 25 W/m 15,8 km/h (3 Bft) 100,00 %
25.01.2018 09:24 7,4 C 7,2 C 6,1 C 96 % 0 lf 1012,1 hPa 0,0 l/m 0 min 0 min 25 W/m 18,0 km/h (3 Bft) 100,00 %
25.01.2018 09:26 7,4 C 7,2 C 6,1 C 96 % 0 lf 1012,1 hPa 0,0 l/m 0 min 0 min 26 W/m 22,5 km/h (4 Bft) 97,87 %
25.01.2018 09:28 7,4 C 7,2 C 6,1 C 96 % 0 lf 1012,1 hPa 0,0 l/m 0 min 0 min 27 W/m 18,0 km/h (3 Bft) 97,87 %
25.01.2018 09:30 7,4 C 7,2 C 6,1 C 96 % 0 lf 1012,1 hPa 0,0 l/m 0 min 0 min 28 W/m 20,3 km/h (4 Bft) 93,62 %
25.01.2018 09:32 7,5 C 7,2 C 6,1 C 96 % 0 lf 1012,1 hPa 0,0 l/m 0 min 0 min 28 W/m 24,8 km/h (4 Bft) 93,62 %
25.01.2018 09:34 7,5 C 7,2 C 6,1 C 96 % 0 lf 1012,1 hPa 0,0 l/m 0 min 0 min 28 W/m 20,3 km/h (4 Bft) 93,62 %
25.01.2018 09:36 7,5 C 7,2 C 6,1 C 96 % 0 lf 1012,0 hPa 0,0 l/m 0 min 0 min 28 W/m 11,3 km/h (2 Bft) 95,65 %
25.01.2018 09:38 7,5 C 7,2 C 6,1 C 96 % 0 lf 1012,0 hPa 0,0 l/m 0 min 0 min 31 W/m 15,8 km/h (3 Bft) 97,87 %
25.01.2018 09:40 7,6 C 7,2 C 6,1 C 96 % 0 lf 1012,0 hPa 0,0 l/m 0 min 0 min 35 W/m 15,8 km/h (3 Bft) 97,87 %
25.01.2018 09:42 7,6 C 7,2 C 6,1 C 96 % 0 lf 1012,0 hPa 0,0 l/m 0 min 0 min 39 W/m 18,0 km/h (3 Bft) 93,62 %
25.01.2018 09:44 7,6 C 7,2 C 6,1 C 96 % 0 lf 1011,9 hPa 0,0 l/m 0 min 0 min 41 W/m 15,8 km/h (3 Bft) 95,74 %
25.01.2018 09:46 7,6 C 7,2 C 6,1 C 96 % 0 lf 1011,8 hPa 0,0 l/m 0 min 0 min 44 W/m 18,0 km/h (3 Bft) 93,48 %
25.01.2018 09:48 7,6 C 7,2 C 6,7 C 96 % 0 lf 1011,8 hPa 0,0 l/m 0 min 0 min 44 W/m 11,3 km/h (2 Bft) 91,49 %
25.01.2018 09:50 7,6 C 7,2 C 6,7 C 96 % 0 lf 1011,8 hPa 0,0 l/m 0 min 0 min 42 W/m 11,3 km/h (2 Bft) 93,62 %
25.01.2018 09:52 7,7 C 7,2 C 6,7 C 96 % 0 lf 1011,7 hPa 0,0 l/m 0 min 0 min 42 W/m 15,8 km/h (3 Bft) 95,74 %
25.01.2018 09:54 7,7 C 7,2 C 6,7 C 96 % 0 lf 1011,7 hPa 0,0 l/m 0 min 0 min 42 W/m 15,8 km/h (3 Bft) 95,74 %
25.01.2018 09:56 7,7 C 7,2 C 6,7 C 96 % 0 lf 1011,7 hPa 0,0 l/m 0 min 0 min 44 W/m 15,8 km/h (3 Bft) 95,74 %
25.01.2018 09:58 7,7 C 7,2 C 6,7 C 96 % 0 lf 1011,8 hPa 0,0 l/m 0 min 0 min 40 W/m 15,8 km/h (3 Bft) 95,65 %
25.01.2018 10:00 7,7 C 7,2 C 6,7 C 96 % 0 lf 1011,6 hPa 0,0 l/m 0 min 0 min 35 W/m 20,3 km/h (4 Bft) 91,49 %
25.01.2018 10:02 7,7 C 7,2 C 6,7 C 96 % 0 lf 1011,7 hPa 0,0 l/m 0 min 0 min 36 W/m 11,3 km/h (2 Bft) 91,49 %
25.01.2018 10:04 7,7 C 7,8 C 6,7 C 96 % 0 lf 1011,8 hPa 0,0 l/m 0 min 0 min 39 W/m 11,3 km/h (2 Bft) 95,74 %
25.01.2018 10:06 7,7 C 7,8 C 6,7 C 96 % 0 lf 1011,9 hPa 0,0 l/m 0 min 0 min 44 W/m 13,5 km/h (3 Bft) 93,62 %
25.01.2018 10:08 7,8 C 7,8 C 6,7 C 96 % 0 lf 1011,9 hPa 0,0 l/m 0 min 0 min 48 W/m 11,3 km/h (2 Bft) 95,74 %
25.01.2018 10:10 7,8 C 7,8 C 6,7 C 96 % 0 lf 1011,9 hPa 0,0 l/m 0 min 0 min 49 W/m 15,8 km/h (3 Bft) 95,65 %
25.01.2018 10:12 7,8 C 7,8 C 6,7 C 96 % 0 lf 1012,0 hPa 0,0 l/m 0 min 0 min 49 W/m 11,3 km/h (2 Bft) 97,87 %
25.01.2018 10:14 7,8 C 7,8 C 6,7 C 96 % 0 lf 1012,0 hPa 0,0 l/m 0 min 0 min 52 W/m 9,0 km/h (2 Bft) 95,74 %
25.01.2018 10:16 7,8 C 7,8 C 6,7 C 96 % 0 lf 1012,1 hPa 0,0 l/m 0 min 0 min 53 W/m 15,8 km/h (3 Bft) 97,87 %
25.01.2018 10:18 7,8 C 7,8 C 6,7 C 96 % 0 lf 1012,1 hPa 0,0 l/m 0 min 0 min 53 W/m 13,5 km/h (3 Bft) 97,87 %
25.01.2018 10:20 7,8 C 7,8 C 6,7 C 95 % 0 lf 1012,2 hPa 0,0 l/m 0 min 0 min 53 W/m 11,3 km/h (2 Bft) 95,74 %
25.01.2018 10:22 7,9 C 7,8 C 6,7 C 95 % 0 lf 1012,2 hPa 0,0 l/m 0 min 0 min 53 W/m 13,5 km/h (3 Bft) 93,48 %
25.01.2018 10:24 7,9 C 7,8 C 6,7 C 95 % 0 lf 1012,1 hPa 0,0 l/m 0 min 0 min 53 W/m 15,8 km/h (3 Bft) 97,87 %
25.01.2018 10:26 7,9 C 7,8 C 6,7 C 95 % 0 lf 1012,1 hPa 0,0 l/m 0 min 0 min 50 W/m 15,8 km/h (3 Bft) 95,74 %
25.01.2018 10:28 7,9 C 7,8 C 6,7 C 95 % 0 lf 1012,2 hPa 0,0 l/m 0 min 0 min 47 W/m 15,8 km/h (3 Bft) 95,74 %
25.01.2018 10:30 7,9 C 7,8 C 6,7 C 95 % 0 lf 1012,2 hPa 0,0 l/m 0 min 0 min 49 W/m 15,8 km/h (3 Bft) 95,74 %
25.01.2018 10:32 7,9 C 7,8 C 6,7 C 95 % 0 lf 1012,3 hPa 0,0 l/m 0 min 0 min 51 W/m 13,5 km/h (3 Bft) 97,87 %
25.01.2018 10:34 7,9 C 7,8 C 6,7 C 95 % 0 lf 1012,3 hPa 0,0 l/m 0 min 0 min 58 W/m 15,8 km/h (3 Bft) 97,83 %
25.01.2018 10:36 7,9 C 7,8 C 6,7 C 95 % 0 lf 1012,3 hPa 0,0 l/m 0 min 0 min 62 W/m 24,8 km/h (4 Bft) 95,74 %
25.01.2018 10:38 8,0 C 7,8 C 6,7 C 95 % 0 lf 1012,2 hPa 0,0 l/m 0 min 0 min 64 W/m 18,0 km/h (3 Bft) 95,74 %
25.01.2018 10:40 8,0 C 7,8 C 6,7 C 95 % 0 lf 1012,2 hPa 0,0 l/m 0 min 0 min 68 W/m 13,5 km/h (3 Bft) 97,87 %
25.01.2018 10:42 8,0 C 7,8 C 6,7 C 95 % 0 lf 1012,2 hPa 0,0 l/m 0 min 0 min 70 W/m 18,0 km/h (3 Bft) 97,87 %
25.01.2018 10:44 8,0 C 7,8 C 6,7 C 95 % 0 lf 1012,2 hPa 0,0 l/m 0 min 0 min 72 W/m 11,3 km/h (2 Bft) 97,87 %
25.01.2018 10:46 8,1 C 7,8 C 6,7 C 95 % 0 lf 1012,1 hPa 0,0 l/m 0 min 0 min 76 W/m 13,5 km/h (3 Bft) 97,83 %
25.01.2018 10:48 8,1 C 7,8 C 6,7 C 95 % 0 lf 1012,2 hPa 0,0 l/m 0 min 0 min 76 W/m 13,5 km/h (3 Bft) 97,87 %
25.01.2018 10:50 8,1 C 7,8 C 6,7 C 95 % 0 lf 1012,2 hPa 0,0 l/m 0 min 0 min 76 W/m 15,8 km/h (3 Bft) 95,74 %
25.01.2018 10:52 8,1 C 7,8 C 7,2 C 95 % 0 lf 1012,3 hPa 0,0 l/m 0 min 0 min 78 W/m 13,5 km/h (3 Bft) 97,87 %
25.01.2018 10:54 8,1 C 8,3 C 7,2 C 95 % 0 lf 1012,3 hPa 0,0 l/m 0 min 0 min 82 W/m 13,5 km/h (3 Bft) 97,87 %
25.01.2018 10:56 8,2 C 8,3 C 7,2 C 95 % 0 lf 1012,3 hPa 0,0 l/m 0 min 0 min 84 W/m 13,5 km/h (3 Bft) 95,65 %
25.01.2018 10:58 8,2 C 8,3 C 7,2 C 95 % 0 lf 1012,3 hPa 0,0 l/m 0 min 0 min 86 W/m 15,8 km/h (3 Bft) 97,87 %
25.01.2018 11:00 8,2 C 8,3 C 7,2 C 94 % 0 lf 1012,4 hPa 0,0 l/m 0 min 0 min 86 W/m 11,3 km/h (2 Bft) 100,00 %
25.01.2018 11:02 8,2 C 8,3 C 7,2 C 94 % 0 lf 1012,4 hPa 0,0 l/m 0 min 0 min 86 W/m 15,8 km/h (3 Bft) 91,49 %
25.01.2018 11:04 8,3 C 8,3 C 7,2 C 94 % 0 lf 1012,4 hPa 0,0 l/m 0 min 0 min 90 W/m 11,3 km/h (2 Bft) 100,00 %
25.01.2018 11:06 8,3 C 8,3 C 7,2 C 94 % 0 lf 1012,4 hPa 0,0 l/m 0 min 0 min 87 W/m 11,3 km/h (2 Bft) 100,00 %
25.01.2018 11:08 8,3 C 8,3 C 7,2 C 94 % 0 lf 1012,4 hPa 0,0 l/m 0 min 0 min 84 W/m 13,5 km/h (3 Bft) 97,83 %
25.01.2018 11:10 8,3 C 8,3 C 7,2 C 94 % 0 lf 1012,4 hPa 0,0 l/m 0 min 0 min 84 W/m 15,8 km/h (3 Bft) 95,74 %
25.01.2018 11:12 8,3 C 8,3 C 7,2 C 94 % 0 lf 1012,4 hPa 0,0 l/m 0 min 0 min 81 W/m 15,8 km/h (3 Bft) 97,87 %
25.01.2018 11:14 8,4 C 8,3 C 7,2 C 94 % 0 lf 1012,4 hPa 0,0 l/m 0 min 0 min 77 W/m 15,8 km/h (3 Bft) 97,87 %
25.01.2018 11:16 8,4 C 8,3 C 7,2 C 94 % 0 lf 1012,4 hPa 0,0 l/m 0 min 0 min 73 W/m 11,3 km/h (2 Bft) 97,87 %
25.01.2018 11:18 8,4 C 8,3 C 7,2 C 94 % 0 lf 1012,4 hPa 0,0 l/m 0 min 0 min 70 W/m 13,5 km/h (3 Bft) 95,74 %
25.01.2018 11:20 8,4 C 8,3 C 7,2 C 94 % 0 lf 1012,2 hPa 0,0 l/m 0 min 0 min 72 W/m 13,5 km/h (3 Bft) 97,83 %
25.01.2018 11:22 8,4 C 8,3 C 7,2 C 93 % 0 lf 1012,3 hPa 0,0 l/m 0 min 0 min 80 W/m 13,5 km/h (3 Bft) 97,87 %
25.01.2018 11:24 8,4 C 8,3 C 7,2 C 93 % 0 lf 1012,3 hPa 0,0 l/m 0 min 0 min 88 W/m 18,0 km/h (3 Bft) 93,62 %
25.01.2018 11:26 8,5 C 8,9 C 7,2 C 93 % 0 lf 1012,3 hPa 0,0 l/m 0 min 0 min 97 W/m 11,3 km/h (2 Bft) 97,87 %
25.01.2018 11:28 8,5 C 8,9 C 7,2 C 93 % 0 lf 1012,3 hPa 0,0 l/m 0 min 0 min 101 W/m 11,3 km/h (2 Bft) 93,62 %
25.01.2018 11:30 8,5 C 8,9 C 7,2 C 93 % 0 lf 1012,3 hPa 0,0 l/m 0 min 0 min 103 W/m 15,8 km/h (3 Bft) 89,36 %
25.01.2018 11:32 8,6 C 9,4 C 7,8 C 93 % 0 lf 1012,2 hPa 0,0 l/m 0 min 0 min 104 W/m 13,5 km/h (3 Bft) 97,83 %
25.01.2018 11:34 8,6 C 9,4 C 7,8 C 93 % 0 lf 1012,2 hPa 0,0 l/m 0 min 0 min 104 W/m 13,5 km/h (3 Bft) 95,74 %
25.01.2018 11:36 8,6 C 9,4 C 7,8 C 93 % 0 lf 1012,1 hPa 0,0 l/m 0 min 0 min 105 W/m 15,8 km/h (3 Bft) 93,62 %
25.01.2018 11:38 8,6 C 9,4 C 7,8 C 93 % 0 lf 1012,1 hPa 0,0 l/m 0 min 0 min 108 W/m 13,5 km/h (3 Bft) 97,87 %
25.01.2018 11:40 8,6 C 9,4 C 7,8 C 92 % 0 lf 1012,0 hPa 0,0 l/m 0 min 0 min 116 W/m 18,0 km/h (3 Bft) 97,87 %
25.01.2018 11:42 8,7 C 9,4 C 7,8 C 92 % 0 lf 1012,1 hPa 0,0 l/m 0 min 0 min 120 W/m 13,5 km/h (3 Bft) 97,87 %
25.01.2018 11:44 8,7 C 9,4 C 7,8 C 92 % 0 lf 1012,0 hPa 0,0 l/m 0 min 0 min 119 W/m 18,0 km/h (3 Bft) 95,65 %
25.01.2018 11:46 8,7 C 9,4 C 7,8 C 92 % 0 lf 1012,0 hPa 0,0 l/m 0 min 0 min 116 W/m 11,3 km/h (2 Bft) 95,74 %
25.01.2018 11:48 8,7 C 9,4 C 7,8 C 92 % 0 lf 1012,0 hPa 0,0 l/m 0 min 0 min 112 W/m 15,8 km/h (3 Bft) 91,49 %
25.01.2018 11:50 8,7 C 9,4 C 7,8 C 92 % 0 lf 1011,9 hPa 0,0 l/m 0 min 0 min 110 W/m 13,5 km/h (3 Bft) 95,74 %
25.01.2018 11:52 8,8 C 9,4 C 7,8 C 92 % 0 lf 1011,9 hPa 0,0 l/m 0 min 0 min 115 W/m 13,5 km/h (3 Bft) 93,62 %
25.01.2018 11:54 8,8 C 10,0 C 7,8 C 92 % 0 lf 1011,8 hPa 0,0 l/m 0 min 0 min 121 W/m 15,8 km/h (3 Bft) 97,87 %
25.01.2018 11:56 8,8 C 10,0 C 7,8 C 92 % 0 lf 1011,9 hPa 0,0 l/m 0 min 0 min 128 W/m 15,8 km/h (3 Bft) 97,83 %
25.01.2018 11:58 8,9 C 10,0 C 8,3 C 92 % 0 lf 1011,8 hPa 0,0 l/m 0 min 0 min 133 W/m 13,5 km/h (3 Bft) 97,87 %
25.01.2018 12:00 8,9 C 10,0 C 7,8 C 91 % 0 lf 1011,8 hPa 0,0 l/m 0 min 0 min 138 W/m 15,8 km/h (3 Bft) 97,87 %
25.01.2018 12:02 8,9 C 10,0 C 7,8 C 91 % 0 lf 1011,9 hPa 0,0 l/m 0 min 0 min 142 W/m 18,0 km/h (3 Bft) 95,74 %
25.01.2018 12:04 8,9 C 10,0 C 7,8 C 91 % 0 lf 1011,7 hPa 0,0 l/m 0 min 0 min 142 W/m 15,8 km/h (3 Bft) 93,62 %
25.01.2018 12:06 8,9 C 10,0 C 8,3 C 91 % 0 lf 1011,9 hPa 0,0 l/m 0 min 0 min 141 W/m 13,5 km/h (3 Bft) 94,00 %
25.01.2018 12:08 9,0 C 10,0 C 8,3 C 91 % 0 lf 1011,8 hPa 0,0 l/m 0 min 0 min 141 W/m 13,5 km/h (3 Bft) 95,65 %
25.01.2018 12:10 9,0 C 10,0 C 8,3 C 91 % 0 lf 1011,8 hPa 0,0 l/m 0 min 0 min 142 W/m 13,5 km/h (3 Bft) 95,74 %
25.01.2018 12:12 9,1 C 10,0 C 8,3 C 91 % 0 lf 1011,8 hPa 0,0 l/m 0 min 0 min 140 W/m 13,5 km/h (3 Bft) 97,14 %
25.01.2018 12:14 9,1 C 10,0 C 8,3 C 90 % 0 lf 1011,8 hPa 0,0 l/m 0 min 0 min 139 W/m 15,8 km/h (3 Bft) 97,87 %
25.01.2018 12:16 9,1 C 10,0 C 8,3 C 90 % 0 lf 1011,6 hPa 0,0 l/m 0 min 0 min 140 W/m 20,3 km/h (4 Bft) 97,87 %
25.01.2018 12:18 9,1 C 10,0 C 8,3 C 90 % 0 lf 1011,6 hPa 0,0 l/m 0 min 0 min 139 W/m 18,0 km/h (3 Bft) 93,62 %
25.01.2018 12:20 9,2 C 10,0 C 8,3 C 90 % 0 lf 1011,5 hPa 0,0 l/m 0 min 0 min 139 W/m 18,0 km/h (3 Bft) 91,53 %
25.01.2018 12:22 9,2 C 10,0 C 8,3 C 90 % 0 lf 1011,5 hPa 0,0 l/m 0 min 0 min 144 W/m 18,0 km/h (3 Bft) 95,65 %
25.01.2018 12:24 9,2 C 10,0 C 8,3 C 90 % 0 lf 1011,4 hPa 0,0 l/m 0 min 0 min 145 W/m 20,3 km/h (4 Bft) 97,14 %
25.01.2018 12:26 9,2 C 10,0 C 8,3 C 90 % 0 lf 1011,3 hPa 0,0 l/m 0 min 0 min 142 W/m 22,5 km/h (4 Bft) 95,74 %
25.01.2018 12:28 9,2 C 10,0 C 8,3 C 90 % 0 lf 1011,3 hPa 0,0 l/m 0 min 0 min 144 W/m 22,5 km/h (4 Bft) 93,62 %
25.01.2018 12:30 9,2 C 10,6 C 8,3 C 89 % 0 lf 1011,4 hPa 0,0 l/m 0 min 0 min 162 W/m 18,0 km/h (3 Bft) 95,74 %
25.01.2018 12:32 9,3 C 10,6 C 8,9 C 89 % 0 lf 1011,5 hPa 0,0 l/m 0 min 0 min 177 W/m 11,3 km/h (2 Bft) 95,74 %
25.01.2018 12:34 9,3 C 11,1 C 8,9 C 89 % 0 lf 1011,4 hPa 0,0 l/m 0 min 0 min 187 W/m 15,8 km/h (3 Bft) 95,74 %
25.01.2018 12:36 9,3 C 11,1 C 8,9 C 90 % 0 lf 1011,4 hPa 0,0 l/m 2 min 0 min 192 W/m 18,0 km/h (3 Bft) 93,48 %
25.01.2018 12:38 9,4 C 11,1 C 8,3 C 89 % 0 lf 1011,5 hPa 0,0 l/m 0 min 0 min 190 W/m 13,5 km/h (3 Bft) 89,36 %
25.01.2018 12:40 9,4 C 11,1 C 8,9 C 89 % 0 lf 1011,5 hPa 0,0 l/m 2 min 0 min 192 W/m 18,0 km/h (3 Bft) 89,36 %
25.01.2018 12:42 9,4 C 11,1 C 8,9 C 89 % 0 lf 1011,6 hPa 0,0 l/m 2 min 0 min 193 W/m 27,0 km/h (4 Bft) 91,49 %
25.01.2018 12:44 9,4 C 11,1 C 8,9 C 89 % 0 lf 1011,5 hPa 0,0 l/m 0 min 0 min 190 W/m 24,8 km/h (4 Bft) 93,62 %
25.01.2018 12:46 9,5 C 11,1 C 8,9 C 89 % 0 lf 1011,6 hPa 0,0 l/m 2 min 0 min 191 W/m 15,8 km/h (3 Bft) 93,62 %
25.01.2018 12:48 9,6 C 11,1 C 8,9 C 89 % 0 lf 1011,5 hPa 0,0 l/m 2 min 0 min 192 W/m 15,8 km/h (3 Bft) 95,74 %
25.01.2018 12:50 9,6 C 11,1 C 8,9 C 89 % 0 lf 1011,5 hPa 0,0 l/m 2 min 0 min 192 W/m 18,0 km/h (3 Bft) 93,22 %
25.01.2018 12:52 9,6 C 11,7 C 9,4 C 89 % 0 lf 1011,5 hPa 0,0 l/m 2 min 0 min 191 W/m 13,5 km/h (3 Bft) 97,14 %
25.01.2018 12:54 9,6 C 11,7 C 9,4 C 89 % 0 lf 1011,5 hPa 0,0 l/m 2 min 0 min 195 W/m 18,0 km/h (3 Bft) 95,74 %
25.01.2018 12:56 9,7 C 11,7 C 10,0 C 88 % 0 lf 1011,5 hPa 0,0 l/m 0 min 0 min 187 W/m 11,3 km/h (2 Bft) 95,74 %
25.01.2018 12:58 9,7 C 11,7 C 10,0 C 88 % 0 lf 1011,5 hPa 0,0 l/m 0 min 0 min 179 W/m 15,8 km/h (3 Bft) 93,62 %
25.01.2018 13:00 9,7 C 11,7 C 10,0 C 88 % 0 lf 1011,5 hPa 0,0 l/m 0 min 0 min 178 W/m 9,0 km/h (2 Bft) 93,48 %
25.01.2018 13:02 9,7 C 11,7 C 10,0 C 88 % 0 lf 1011,5 hPa 0,0 l/m 0 min 0 min 183 W/m 11,3 km/h (2 Bft) 95,74 %
25.01.2018 13:04 9,8 C 11,7 C 10,0 C 88 % 0 lf 1011,5 hPa 0,0 l/m 0 min 0 min 189 W/m 11,3 km/h (2 Bft) 97,87 %
25.01.2018 13:06 9,8 C 11,7 C 10,0 C 88 % 0 lf 1011,5 hPa 0,0 l/m 0 min 0 min 187 W/m 13,5 km/h (3 Bft) 97,87 %
25.01.2018 13:08 9,8 C 12,2 C 10,0 C 88 % 0 lf 1011,4 hPa 0,0 l/m 0 min 0 min 185 W/m 11,3 km/h (2 Bft) 97,87 %
25.01.2018 13:10 9,9 C 12,2 C 10,6 C 88 % 0 lf 1011,4 hPa 0,0 l/m 0 min 0 min 182 W/m 9,0 km/h (2 Bft) 97,87 %
25.01.2018 13:12 9,9 C 11,7 C 10,0 C 88 % 0 lf 1011,3 hPa 0,0 l/m 0 min 0 min 178 W/m 9,0 km/h (2 Bft) 95,65 %
25.01.2018 13:14 9,9 C 11,7 C 10,6 C 88 % 0 lf 1011,3 hPa 0,0 l/m 0 min 0 min 172 W/m 6,8 km/h (2 Bft) 97,87 %
25.01.2018 13:16 10,0 C 11,7 C 10,6 C 88 % 0 lf 1011,4 hPa 0,0 l/m 0 min 0 min 169 W/m 11,3 km/h (2 Bft) 91,49 %
25.01.2018 13:18 10,0 C 11,7 C 10,0 C 88 % 0 lf 1011,4 hPa 0,0 l/m 0 min 0 min 164 W/m 9,0 km/h (2 Bft) 97,87 %
25.01.2018 13:20 10,0 C 11,7 C 10,0 C 88 % 0 lf 1011,4 hPa 0,0 l/m 0 min 0 min 158 W/m 11,3 km/h (2 Bft) 98,28 %
25.01.2018 13:22 10,0 C 11,1 C 10,0 C 87 % 0 lf 1011,3 hPa 0,0 l/m 0 min 0 min 148 W/m 18,0 km/h (3 Bft) 100,00 %
25.01.2018 13:24 10,0 C 11,1 C 10,0 C 87 % 0 lf 1011,3 hPa 0,0 l/m 0 min 0 min 142 W/m 11,3 km/h (2 Bft) 100,00 %
25.01.2018 13:26 10,1 C 11,1 C 10,0 C 87 % 0 lf 1011,3 hPa 0,0 l/m 0 min 0 min 141 W/m 13,5 km/h (3 Bft) 100,00 %
25.01.2018 13:28 10,1 C 11,1 C 10,0 C 87 % 0 lf 1011,3 hPa 0,0 l/m 0 min 0 min 142 W/m 13,5 km/h (3 Bft) 95,74 %
25.01.2018 13:30 10,1 C 11,1 C 10,0 C 87 % 0 lf 1011,3 hPa 0,0 l/m 0 min 0 min 142 W/m 15,8 km/h (3 Bft) 100,00 %
25.01.2018 13:32 10,1 C 11,1 C 10,0 C 87 % 0 lf 1011,3 hPa 0,0 l/m 0 min 0 min 137 W/m 13,5 km/h (3 Bft) 97,87 %
25.01.2018 13:34 10,1 C 11,1 C 10,0 C 87 % 0 lf 1011,2 hPa 0,0 l/m 0 min 0 min 128 W/m 11,3 km/h (2 Bft) 100,00 %
25.01.2018 13:36 10,1 C 11,1 C 10,0 C 87 % 0 lf 1011,1 hPa 0,0 l/m 0 min 0 min 127 W/m 11,3 km/h (2 Bft) 100,00 %
25.01.2018 13:38 10,1 C 11,1 C 10,0 C 87 % 0 lf 1011,1 hPa 0,0 l/m 0 min 0 min 124 W/m 11,3 km/h (2 Bft) 100,00 %
25.01.2018 13:40 10,1 C 10,6 C 10,0 C 87 % 0 lf 1011,0 hPa 0,0 l/m 0 min 0 min 122 W/m 9,0 km/h (2 Bft) 100,00 %
25.01.2018 13:42 10,1 C 10,6 C 10,0 C 87 % 0 lf 1010,9 hPa 0,0 l/m 0 min 0 min 121 W/m 11,3 km/h (2 Bft) 100,00 %
25.01.2018 13:44 10,1 C 11,1 C 10,0 C 87 % 0 lf 1010,9 hPa 0,0 l/m 0 min 0 min 118 W/m 9,0 km/h (2 Bft) 97,87 %
25.01.2018 13:46 10,1 C 10,6 C 10,0 C 87 % 0 lf 1010,9 hPa 0,0 l/m 0 min 0 min 113 W/m 20,3 km/h (4 Bft) 97,83 %
25.01.2018 13:48 10,1 C 10,6 C 10,0 C 87 % 0 lf 1010,8 hPa 0,0 l/m 0 min 0 min 103 W/m 15,8 km/h (3 Bft) 95,74 %
25.01.2018 13:50 10,1 C 10,6 C 9,4 C 86 % 0 lf 1010,8 hPa 0,0 l/m 0 min 0 min 101 W/m 15,8 km/h (3 Bft) 100,00 %
25.01.2018 13:52 10,1 C 10,6 C 9,4 C 86 % 0 lf 1010,7 hPa 0,0 l/m 0 min 0 min 98 W/m 13,5 km/h (3 Bft) 100,00 %
25.01.2018 13:54 10,1 C 10,6 C 9,4 C 86 % 0 lf 1010,7 hPa 0,0 l/m 0 min 0 min 94 W/m 11,3 km/h (2 Bft) 100,00 %
25.01.2018 13:56 10,1 C 10,6 C 9,4 C 86 % 0 lf 1010,7 hPa 0,0 l/m 0 min 0 min 95 W/m 9,0 km/h (2 Bft) 100,00 %
25.01.2018 13:58 10,1 C 10,6 C 9,4 C 86 % 0 lf 1010,7 hPa 0,0 l/m 0 min 0 min 94 W/m 9,0 km/h (2 Bft) 97,83 %
25.01.2018 14:00 10,1 C 10,6 C 9,4 C 86 % 0 lf 1010,7 hPa 0,0 l/m 0 min 0 min 91 W/m 18,0 km/h (3 Bft) 100,00 %
25.01.2018 14:02 10,1 C 10,6 C 9,4 C 86 % 0 lf 1010,6 hPa 0,0 l/m 0 min 0 min 90 W/m 13,5 km/h (3 Bft) 100,00 %
25.01.2018 14:04 10,1 C 10,6 C 9,4 C 86 % 0 lf 1010,7 hPa 0,0 l/m 0 min 0 min 89 W/m 13,5 km/h (3 Bft) 97,87 %
25.01.2018 14:06 10,1 C 10,6 C 9,4 C 86 % 0 lf 1010,7 hPa 0,0 l/m 0 min 0 min 84 W/m 11,3 km/h (2 Bft) 97,87 %
25.01.2018 14:08 10,1 C 10,6 C 9,4 C 86 % 0 lf 1010,7 hPa 0,0 l/m 0 min 0 min 83 W/m 6,8 km/h (2 Bft) 100,00 %
25.01.2018 14:10 10,1 C 10,6 C 9,4 C 86 % 0 lf 1010,6 hPa 0,0 l/m 0 min 0 min 87 W/m 9,0 km/h (2 Bft) 100,00 %
25.01.2018 14:12 10,1 C 10,6 C 9,4 C 86 % 0 lf 1010,6 hPa 0,0 l/m 0 min 0 min 100 W/m 18,0 km/h (3 Bft) 100,00 %
25.01.2018 14:14 10,1 C 10,6 C 9,4 C 86 % 0 lf 1010,6 hPa 0,0 l/m 0 min 0 min 111 W/m 18,0 km/h (3 Bft) 100,00 %
25.01.2018 14:16 10,1 C 10,6 C 9,4 C 86 % 0 lf 1010,5 hPa 0,0 l/m 0 min 0 min 118 W/m 13,5 km/h (3 Bft) 97,87 %
25.01.2018 14:18 10,1 C 10,6 C 9,4 C 86 % 0 lf 1010,6 hPa 0,0 l/m 0 min 0 min 118 W/m 20,3 km/h (4 Bft) 100,00 %
25.01.2018 14:20 10,1 C 10,6 C 9,4 C 86 % 0 lf 1010,6 hPa 0,0 l/m 0 min 0 min 113 W/m 15,8 km/h (3 Bft) 98,28 %
25.01.2018 14:22 10,1 C 10,6 C 9,4 C 86 % 0 lf 1010,6 hPa 0,0 l/m 0 min 0 min 115 W/m 13,5 km/h (3 Bft) 100,00 %
25.01.2018 14:24 10,0 C 10,6 C 10,0 C 86 % 0 lf 1010,6 hPa 0,0 l/m 0 min 0 min 115 W/m 9,0 km/h (2 Bft) 95,74 %
25.01.2018 14:26 10,1 C 10,6 C 10,0 C 86 % 0 lf 1010,6 hPa 0,0 l/m 0 min 0 min 119 W/m 9,0 km/h (2 Bft) 95,74 %
25.01.2018 14:28 10,1 C 11,1 C 10,0 C 86 % 0 lf 1010,6 hPa 0,0 l/m 0 min 0 min 117 W/m 9,0 km/h (2 Bft) 100,00 %
25.01.2018 14:30 10,1 C 10,6 C 10,0 C 86 % 0 lf 1010,6 hPa 0,0 l/m 0 min 0 min 106 W/m 15,8 km/h (3 Bft) 97,87 %
25.01.2018 14:32 10,1 C 10,6 C 9,4 C 86 % 0 lf 1010,6 hPa 0,0 l/m 0 min 0 min 99 W/m 18,0 km/h (3 Bft) 95,74 %
25.01.2018 14:34 10,1 C 10,6 C 9,4 C 86 % 0 lf 1010,6 hPa 0,0 l/m 0 min 0 min 95 W/m 15,8 km/h (3 Bft) 97,83 %
25.01.2018 14:36 10,1 C 10,6 C 9,4 C 86 % 0 lf 1010,6 hPa 0,0 l/m 0 min 0 min 90 W/m 15,8 km/h (3 Bft) 95,74 %
25.01.2018 14:38 10,1 C 10,6 C 9,4 C 86 % 0 lf 1010,5 hPa 0,0 l/m 0 min 0 min 87 W/m 18,0 km/h (3 Bft) 95,74 %
25.01.2018 14:40 10,1 C 10,6 C 9,4 C 86 % 0 lf 1010,5 hPa 0,0 l/m 0 min 0 min 85 W/m 13,5 km/h (3 Bft) 95,74 %
25.01.2018 14:42 10,1 C 10,6 C 9,4 C 86 % 0 lf 1010,5 hPa 0,0 l/m 0 min 0 min 82 W/m 18,0 km/h (3 Bft) 95,74 %
25.01.2018 14:44 10,0 C 10,6 C 9,4 C 86 % 0 lf 1010,5 hPa 0,0 l/m 0 min 0 min 76 W/m 13,5 km/h (3 Bft) 95,65 %
25.01.2018 14:46 10,0 C 10,0 C 9,4 C 86 % 0 lf 1010,5 hPa 0,0 l/m 0 min 0 min 70 W/m 15,8 km/h (3 Bft) 93,75 %
25.01.2018 14:48 10,0 C 10,0 C 9,4 C 85 % 0 lf 1010,5 hPa 0,0 l/m 0 min 0 min 59 W/m 13,5 km/h (3 Bft) 93,62 %
25.01.2018 14:50 10,0 C 10,0 C 8,9 C 85 % 0 lf 1010,5 hPa 0,0 l/m 0 min 0 min 53 W/m 18,0 km/h (3 Bft) 94,92 %
25.01.2018 14:52 10,0 C 10,0 C 8,9 C 85 % 0 lf 1010,5 hPa 0,0 l/m 0 min 0 min 48 W/m 15,8 km/h (3 Bft) 97,14 %
25.01.2018 14:54 9,9 C 10,0 C 8,9 C 85 % 0 lf 1010,5 hPa 0,0 l/m 0 min 0 min 48 W/m 13,5 km/h (3 Bft) 89,36 %
25.01.2018 14:56 9,9 C 10,0 C 8,9 C 85 % 0 lf 1010,6 hPa 0,0 l/m 0 min 0 min 50 W/m 13,5 km/h (3 Bft) 93,48 %
25.01.2018 14:58 9,9 C 10,0 C 8,9 C 85 % 0 lf 1010,5 hPa 0,0 l/m 0 min 0 min 51 W/m 15,8 km/h (3 Bft) 91,49 %
25.01.2018 15:00 9,9 C 10,0 C 8,9 C 85 % 0 lf 1010,5 hPa 0,0 l/m 0 min 0 min 51 W/m 15,8 km/h (3 Bft) 93,62 %
25.01.2018 15:02 9,9 C 10,0 C 8,9 C 85 % 0 lf 1010,5 hPa 0,0 l/m 0 min 0 min 48 W/m 18,0 km/h (3 Bft) 93,62 %
25.01.2018 15:04 9,9 C 10,0 C 8,9 C 85 % 0 lf 1010,5 hPa 0,0 l/m 0 min 0 min 44 W/m 13,5 km/h (3 Bft) 93,62 %
25.01.2018 15:06 9,9 C 10,0 C 8,9 C 85 % 0 lf 1010,5 hPa 0,0 l/m 0 min 0 min 49 W/m 11,3 km/h (2 Bft) 91,49 %
25.01.2018 15:08 9,9 C 10,0 C 8,9 C 85 % 0 lf 1010,5 hPa 0,0 l/m 0 min 0 min 53 W/m 15,8 km/h (3 Bft) 95,65 %
25.01.2018 15:10 9,9 C 10,0 C 8,9 C 85 % 0 lf 1010,5 hPa 0,0 l/m 0 min 0 min 53 W/m 18,0 km/h (3 Bft) 97,87 %
25.01.2018 15:12 9,8 C 10,0 C 8,9 C 85 % 0 lf 1010,6 hPa 0,0 l/m 0 min 0 min 53 W/m 15,8 km/h (3 Bft) 93,62 %
25.01.2018 15:14 9,8 C 10,0 C 8,9 C 85 % 0 lf 1010,6 hPa 0,0 l/m 0 min 0 min 53 W/m 11,3 km/h (2 Bft) 95,74 %
25.01.2018 15:16 9,8 C 10,0 C 8,9 C 85 % 0 lf 1010,6 hPa 0,0 l/m 0 min 0 min 54 W/m 9,0 km/h (2 Bft) 95,74 %
25.01.2018 15:18 9,8 C 10,0 C 8,9 C 85 % 0 lf 1010,6 hPa 0,0 l/m 0 min 0 min 57 W/m 13,5 km/h (3 Bft) 93,62 %
25.01.2018 15:20 9,8 C 10,0 C 8,9 C 86 % 0 lf 1010,7 hPa 0,0 l/m 0 min 0 min 57 W/m 11,3 km/h (2 Bft) 94,83 %
25.01.2018 15:22 9,8 C 10,0 C 8,9 C 86 % 0 lf 1010,7 hPa 0,0 l/m 0 min 0 min 52 W/m 9,0 km/h (2 Bft) 91,43 %
25.01.2018 15:24 9,8 C 10,0 C 8,9 C 86 % 0 lf 1010,7 hPa 0,0 l/m 0 min 0 min 44 W/m 9,0 km/h (2 Bft) 93,62 %
25.01.2018 15:26 9,8 C 10,0 C 8,9 C 86 % 0 lf 1010,7 hPa 0,0 l/m 0 min 0 min 46 W/m 15,8 km/h (3 Bft) 93,62 %
25.01.2018 15:28 9,8 C 10,0 C 8,9 C 86 % 0 lf 1010,7 hPa 0,0 l/m 0 min 0 min 47 W/m 18,0 km/h (3 Bft) 93,62 %
25.01.2018 15:30 9,8 C 10,0 C 8,9 C 86 % 0 lf 1010,8 hPa 0,0 l/m 0 min 0 min 47 W/m 11,3 km/h (2 Bft) 89,13 %
25.01.2018 15:32 9,8 C 10,0 C 8,9 C 86 % 0 lf 1010,7 hPa 0,0 l/m 0 min 0 min 47 W/m 13,5 km/h (3 Bft) 93,75 %
25.01.2018 15:34 9,8 C 10,0 C 8,9 C 86 % 0 lf 1010,7 hPa 0,0 l/m 0 min 0 min 46 W/m 11,3 km/h (2 Bft) 89,36 %
25.01.2018 15:36 9,8 C 10,0 C 8,9 C 86 % 0 lf 1010,7 hPa 0,0 l/m 0 min 0 min 44 W/m 9,0 km/h (2 Bft) 91,49 %
25.01.2018 15:38 9,8 C 10,0 C 8,9 C 86 % 0 lf 1010,6 hPa 0,0 l/m 0 min 0 min 41 W/m 11,3 km/h (2 Bft) 93,62 %
25.01.2018 15:40 9,8 C 10,0 C 8,9 C 86 % 0 lf 1010,5 hPa 0,0 l/m 0 min 0 min 40 W/m 11,3 km/h (2 Bft) 95,74 %
25.01.2018 15:42 9,8 C 10,0 C 8,9 C 86 % 0 lf 1010,6 hPa 0,0 l/m 0 min 2 min 39 W/m 11,3 km/h (2 Bft) 95,65 %
25.01.2018 15:44 9,8 C 9,4 C 8,9 C 86 % 0 lf 1010,6 hPa 0,0 l/m 0 min 0 min 40 W/m 9,0 km/h (2 Bft) 95,74 %
25.01.2018 15:46 9,8 C 9,4 C 8,3 C 86 % 0 lf 1010,6 hPa 0,0 l/m 0 min 0 min 42 W/m 11,3 km/h (2 Bft) 89,36 %
25.01.2018 15:48 9,8 C 9,4 C 8,3 C 86 % 0 lf 1010,6 hPa 0,0 l/m 0 min 0 min 43 W/m 13,5 km/h (3 Bft) 97,87 %
25.01.2018 15:50 9,8 C 9,4 C 8,3 C 86 % 0 lf 1010,5 hPa 0,0 l/m 0 min 0 min 41 W/m 11,3 km/h (2 Bft) 93,10 %
25.01.2018 15:52 9,8 C 9,4 C 8,3 C 86 % 0 lf 1010,6 hPa 0,0 l/m 0 min 0 min 38 W/m 11,3 km/h (2 Bft) 97,22 %
25.01.2018 15:54 9,8 C 9,4 C 8,3 C 86 % 0 lf 1010,6 hPa 0,0 l/m 0 min 0 min 33 W/m 9,0 km/h (2 Bft) 97,83 %
25.01.2018 15:56 9,8 C 9,4 C 8,3 C 86 % 0 lf 1010,6 hPa 0,0 l/m 0 min 0 min 29 W/m 9,0 km/h (2 Bft) 97,87 %
25.01.2018 15:58 9,8 C 9,4 C 8,3 C 86 % 1 lf 1010,6 hPa 0,0 l/m 0 min 0 min 30 W/m 11,3 km/h (2 Bft) 97,87 %
25.01.2018 16:00 9,7 C 9,4 C 8,3 C 86 % 1 lf 1010,6 hPa 0,0 l/m 0 min 2 min 29 W/m 9,0 km/h (2 Bft) 97,87 %
25.01.2018 16:02 9,7 C 9,4 C 7,8 C 86 % 3 lf 1010,6 hPa 0,0 l/m 0 min 2 min 26 W/m 15,8 km/h (3 Bft) 89,36 %
25.01.2018 16:04 9,7 C 8,9 C 7,8 C 87 % 3 lf 1010,6 hPa 0,0 l/m 0 min 2 min 26 W/m 13,5 km/h (3 Bft) 97,87 %
25.01.2018 16:06 9,7 C 8,9 C 7,8 C 87 % 3 lf 1010,5 hPa 0,0 l/m 0 min 2 min 26 W/m 15,8 km/h (3 Bft) 97,83 %
25.01.2018 16:08 9,7 C 8,9 C 7,8 C 87 % 3 lf 1010,6 hPa 0,0 l/m 0 min 2 min 26 W/m 13,5 km/h (3 Bft) 97,87 %
25.01.2018 16:10 9,7 C 8,3 C 7,2 C 87 % 3 lf 1010,6 hPa 0,0 l/m 0 min 2 min 26 W/m 15,8 km/h (3 Bft) 100,00 %
25.01.2018 16:12 9,7 C 8,3 C 7,2 C 87 % 2 lf 1010,6 hPa 0,0 l/m 0 min 0 min 26 W/m 13,5 km/h (3 Bft) 100,00 %
25.01.2018 16:14 9,6 C 8,3 C 7,2 C 87 % 1 lf 1010,6 hPa 0,0 l/m 0 min 0 min 25 W/m 11,3 km/h (2 Bft) 100,00 %
25.01.2018 16:16 9,6 C 8,3 C 7,2 C 87 % 1 lf 1010,6 hPa 0,0 l/m 0 min 0 min 23 W/m 11,3 km/h (2 Bft) 100,00 %
25.01.2018 16:18 9,6 C 8,3 C 7,2 C 87 % 0 lf 1010,6 hPa 0,0 l/m 0 min 0 min 23 W/m 6,8 km/h (2 Bft) 97,83 %
25.01.2018 16:20 9,6 C 8,3 C 7,2 C 87 % 1 lf 1010,6 hPa 0,0 l/m 0 min 0 min 22 W/m 6,8 km/h (2 Bft) 93,62 %
25.01.2018 16:22 9,5 C 8,3 C 7,2 C 87 % 0 lf 1010,6 hPa 0,0 l/m 0 min 0 min 21 W/m 13,5 km/h (3 Bft) 100,00 %
25.01.2018 16:24 9,5 C 8,9 C 7,2 C 87 % 0 lf 1010,7 hPa 0,0 l/m 0 min 2 min 19 W/m 13,5 km/h (3 Bft) 97,87 %
25.01.2018 16:26 9,5 C 8,9 C 7,2 C 87 % 0 lf 1010,7 hPa 0,0 l/m 0 min 0 min 15 W/m 27,0 km/h (4 Bft) 100,00 %
25.01.2018 16:28 9,4 C 8,9 C 7,2 C 87 % 0 lf 1010,7 hPa 0,0 l/m 0 min 0 min 12 W/m 22,5 km/h (4 Bft) 97,83 %
25.01.2018 16:30 9,4 C 8,3 C 7,2 C 87 % 0 lf 1010,7 hPa 0,0 l/m 0 min 0 min 11 W/m 24,8 km/h (4 Bft) 97,87 %
25.01.2018 16:32 9,4 C 8,3 C 7,2 C 87 % 1 lf 1010,8 hPa 0,0 l/m 0 min 2 min 11 W/m 20,3 km/h (4 Bft) 95,74 %
25.01.2018 16:34 9,3 C 8,3 C 7,2 C 87 % 2 lf 1010,8 hPa 0,0 l/m 0 min 2 min 10 W/m 22,5 km/h (4 Bft) 95,74 %
25.01.2018 16:36 9,3 C 8,3 C 6,7 C 87 % 3 lf 1010,8 hPa 0,0 l/m 0 min 2 min 9 W/m 15,8 km/h (3 Bft) 95,74 %
25.01.2018 16:38 9,2 C 7,8 C 6,7 C 87 % 4 lf 1010,8 hPa 0,0 l/m 0 min 2 min 9 W/m 13,5 km/h (3 Bft) 95,74 %
25.01.2018 16:40 9,2 C 7,8 C 6,7 C 87 % 4 lf 1010,8 hPa 0,0 l/m 0 min 2 min 8 W/m 13,5 km/h (3 Bft) 97,83 %
25.01.2018 16:42 9,2 C 7,8 C 6,7 C 87 % 4 lf 1010,9 hPa 0,0 l/m 0 min 2 min 7 W/m 15,8 km/h (3 Bft) 97,87 %
25.01.2018 16:44 9,1 C 7,8 C 6,7 C 87 % 5 lf 1010,8 hPa 0,0 l/m 0 min 2 min 7 W/m 15,8 km/h (3 Bft) 93,62 %
25.01.2018 16:46 9,1 C 7,2 C 6,7 C 87 % 8 lf 1010,8 hPa 0,0 l/m 0 min 2 min 5 W/m 15,8 km/h (3 Bft) 95,74 %
25.01.2018 16:48 9,0 C 7,2 C 6,1 C 88 % 10 lf 1010,9 hPa 0,0 l/m 0 min 2 min 5 W/m 15,8 km/h (3 Bft) 97,92 %
25.01.2018 16:50 8,9 C 7,2 C 6,1 C 88 % 12 lf 1010,9 hPa 0,0 l/m 0 min 2 min 5 W/m 20,3 km/h (4 Bft) 95,74 %
25.01.2018 16:52 8,8 C 7,2 C 6,1 C 88 % 12 lf 1010,9 hPa 0,0 l/m 0 min 2 min 5 W/m 15,8 km/h (3 Bft) 95,65 %
25.01.2018 16:54 8,8 C 6,7 C 6,1 C 88 % 13 lf 1010,9 hPa 0,0 l/m 0 min 2 min 3 W/m 11,3 km/h (2 Bft) 97,87 %
25.01.2018 16:56 8,7 C 6,7 C 6,1 C 88 % 13 lf 1010,9 hPa 0,0 l/m 0 min 2 min 0 W/m 20,3 km/h (4 Bft) 97,87 %
25.01.2018 16:58 8,6 C 6,7 C 5,6 C 88 % 14 lf 1010,9 hPa 0,0 l/m 0 min 2 min 0 W/m 11,3 km/h (2 Bft) 97,87 %
25.01.2018 17:00 8,6 C 6,7 C 5,6 C 88 % 14 lf 1010,9 hPa 0,0 l/m 0 min 2 min 0 W/m 13,5 km/h (3 Bft) 95,74 %
25.01.2018 17:02 8,5 C 6,7 C 5,6 C 88 % 14 lf 1010,8 hPa 0,0 l/m 0 min 2 min 0 W/m 13,5 km/h (3 Bft) 100,00 %
25.01.2018 17:04 8,4 C 6,7 C 5,6 C 88 % 15 lf 1010,8 hPa 0,2 l/m 0 min 2 min 0 W/m 13,5 km/h (3 Bft) 100,00 %
25.01.2018 17:06 8,4 C 6,7 C 5,6 C 88 % 15 lf 1010,8 hPa 0,0 l/m 0 min 2 min 0 W/m 13,5 km/h (3 Bft) 100,00 %
25.01.2018 17:08 8,3 C 6,1 C 5,6 C 88 % 15 lf 1010,8 hPa 0,0 l/m 0 min 2 min 0 W/m 13,5 km/h (3 Bft) 100,00 %
25.01.2018 17:10 8,3 C 6,1 C 5,6 C 88 % 15 lf 1010,8 hPa 0,0 l/m 0 min 2 min 0 W/m 9,0 km/h (2 Bft) 97,87 %
25.01.2018 17:12 8,2 C 6,1 C 5,6 C 88 % 15 lf 1010,8 hPa 0,0 l/m 0 min 2 min 0 W/m 11,3 km/h (2 Bft) 100,00 %
25.01.2018 17:14 8,2 C 6,1 C 5,6 C 88 % 15 lf 1010,8 hPa 0,0 l/m 0 min 2 min 0 W/m 11,3 km/h (2 Bft) 97,87 %
25.01.2018 17:16 8,1 C 6,1 C 5,6 C 89 % 14 lf 1010,7 hPa 0,0 l/m 0 min 2 min 0 W/m 11,3 km/h (2 Bft) 97,87 %
25.01.2018 17:18 8,1 C 6,1 C 5,6 C 89 % 14 lf 1010,7 hPa 0,0 l/m 0 min 2 min 0 W/m 6,8 km/h (2 Bft) 100,00 %
25.01.2018 17:20 8,1 C 6,1 C 5,6 C 89 % 14 lf 1010,7 hPa 0,0 l/m 0 min 2 min 0 W/m 9,0 km/h (2 Bft) 95,74 %
25.01.2018 17:22 8,0 C 6,1 C 5,6 C 89 % 14 lf 1010,7 hPa 0,0 l/m 0 min 2 min 0 W/m 6,8 km/h (2 Bft) 100,00 %
25.01.2018 17:24 8,0 C 6,1 C 5,6 C 89 % 14 lf 1010,6 hPa 0,0 l/m 0 min 2 min 0 W/m 9,0 km/h (2 Bft) 95,65 %
25.01.2018 17:26 7,9 C 6,1 C 5,6 C 89 % 14 lf 1010,6 hPa 0,0 l/m 0 min 2 min 0 W/m 9,0 km/h (2 Bft) 97,87 %
25.01.2018 17:28 7,9 C 6,1 C 5,6 C 89 % 14 lf 1010,7 hPa 0,0 l/m 0 min 2 min 0 W/m 6,8 km/h (2 Bft) 97,87 %
25.01.2018 17:30 7,9 C 6,1 C 5,6 C 90 % 14 lf 1010,7 hPa 0,0 l/m 0 min 2 min 0 W/m 9,0 km/h (2 Bft) 100,00 %
25.01.2018 17:32 7,8 C 6,1 C 5,6 C 90 % 14 lf 1010,7 hPa 0,0 l/m 0 min 2 min 0 W/m 6,8 km/h (2 Bft) 97,87 %
25.01.2018 17:34 7,8 C 6,1 C 5,6 C 90 % 14 lf 1010,6 hPa 0,0 l/m 0 min 2 min 0 W/m 9,0 km/h (2 Bft) 97,87 %
25.01.2018 17:36 7,8 C 6,1 C 5,6 C 90 % 14 lf 1010,6 hPa 0,0 l/m 0 min 2 min 0 W/m 11,3 km/h (2 Bft) 97,83 %
25.01.2018 17:38 7,8 C 6,1 C 5,6 C 90 % 14 lf 1010,6 hPa 0,0 l/m 0 min 0 min 0 W/m 11,3 km/h (2 Bft) 97,87 %
25.01.2018 17:40 7,7 C 6,1 C 5,6 C 90 % 14 lf 1010,6 hPa 0,0 l/m 0 min 0 min 0 W/m 9,0 km/h (2 Bft) 95,74 %
25.01.2018 17:42 7,7 C 6,1 C 5,6 C 90 % 14 lf 1010,6 hPa 0,0 l/m 0 min 0 min 0 W/m 9,0 km/h (2 Bft) 97,87 %
25.01.2018 17:44 7,7 C 6,1 C 5,6 C 90 % 13 lf 1010,6 hPa 0,0 l/m 0 min 0 min 0 W/m 11,3 km/h (2 Bft) 95,74 %
25.01.2018 17:46 7,7 C 6,1 C 5,6 C 91 % 13 lf 1010,6 hPa 0,0 l/m 0 min 0 min 0 W/m 9,0 km/h (2 Bft) 97,83 %
25.01.2018 17:48 7,7 C 6,7 C 5,6 C 91 % 13 lf 1010,6 hPa 0,0 l/m 0 min 0 min 0 W/m 11,3 km/h (2 Bft) 97,87 %
25.01.2018 17:50 7,7 C 6,7 C 5,6 C 91 % 13 lf 1010,6 hPa 0,0 l/m 0 min 0 min 0 W/m 9,0 km/h (2 Bft) 95,74 %
25.01.2018 17:52 7,6 C 6,7 C 5,6 C 91 % 13 lf 1010,6 hPa 0,0 l/m 0 min 0 min 0 W/m 13,5 km/h (3 Bft) 97,87 %
25.01.2018 17:54 7,6 C 6,7 C 5,6 C 91 % 13 lf 1010,6 hPa 0,0 l/m 0 min 0 min 0 W/m 15,8 km/h (3 Bft) 97,87 %
25.01.2018 17:56 7,6 C 6,7 C 5,6 C 91 % 13 lf 1010,6 hPa 0,0 l/m 0 min 0 min 0 W/m 11,3 km/h (2 Bft) 95,74 %
25.01.2018 17:58 7,6 C 6,7 C 5,6 C 91 % 12 lf 1010,6 hPa 0,0 l/m 0 min 0 min 0 W/m 9,0 km/h (2 Bft) 97,83 %
25.01.2018 18:00 7,6 C 6,7 C 5,6 C 91 % 12 lf 1010,6 hPa 0,2 l/m 0 min 0 min 0 W/m 15,8 km/h (3 Bft) 97,87 %
25.01.2018 18:02 7,6 C 6,7 C 5,6 C 91 % 12 lf 1010,7 hPa 0,0 l/m 0 min 0 min 0 W/m 11,3 km/h (2 Bft) 95,74 %
25.01.2018 18:04 7,6 C 6,7 C 5,6 C 92 % 12 lf 1010,7 hPa 0,0 l/m 0 min 0 min 0 W/m 13,5 km/h (3 Bft) 95,74 %
25.01.2018 18:06 7,5 C 6,7 C 5,6 C 92 % 12 lf 1010,7 hPa 0,0 l/m 0 min 0 min 0 W/m 13,5 km/h (3 Bft) 97,92 %
25.01.2018 18:08 7,5 C 6,7 C 5,6 C 92 % 11 lf 1010,7 hPa 0,0 l/m 0 min 0 min 0 W/m 11,3 km/h (2 Bft) 97,87 %
25.01.2018 18:10 7,5 C 6,7 C 5,6 C 92 % 11 lf 1010,8 hPa 0,0 l/m 0 min 0 min 0 W/m 15,8 km/h (3 Bft) 95,65 %
25.01.2018 18:12 7,5 C 6,7 C 5,6 C 92 % 10 lf 1010,8 hPa 0,0 l/m 0 min 0 min 0 W/m 15,8 km/h (3 Bft) 97,87 %
25.01.2018 18:14 7,5 C 6,7 C 5,6 C 92 % 10 lf 1010,8 hPa 0,0 l/m 0 min 0 min 0 W/m 13,5 km/h (3 Bft) 97,87 %
25.01.2018 18:16 7,4 C 6,7 C 5,6 C 92 % 10 lf 1010,8 hPa 0,0 l/m 0 min 0 min 0 W/m 9,0 km/h (2 Bft) 95,74 %
25.01.2018 18:18 7,4 C 6,7 C 5,6 C 92 % 9 lf 1010,8 hPa 0,0 l/m 0 min 0 min 0 W/m 9,0 km/h (2 Bft) 95,74 %
25.01.2018 18:20 7,4 C 6,7 C 5,6 C 92 % 9 lf 1010,9 hPa 0,0 l/m 0 min 0 min 0 W/m 15,8 km/h (3 Bft) 95,74 %
25.01.2018 18:22 7,4 C 6,7 C 5,6 C 92 % 7 lf 1010,9 hPa 0,0 l/m 0 min 0 min 0 W/m 13,5 km/h (3 Bft) 97,83 %
25.01.2018 18:24 7,4 C 6,7 C 5,6 C 92 % 7 lf 1010,9 hPa 0,0 l/m 0 min 0 min 0 W/m 18,0 km/h (3 Bft) 93,62 %
25.01.2018 18:26 7,4 C 6,7 C 5,6 C 92 % 6 lf 1010,9 hPa 0,0 l/m 0 min 0 min 0 W/m 11,3 km/h (2 Bft) 93,62 %
25.01.2018 18:28 7,4 C 6,7 C 5,6 C 93 % 5 lf 1011,0 hPa 0,0 l/m 0 min 0 min 0 W/m 18,0 km/h (3 Bft) 93,62 %
25.01.2018 18:30 7,4 C 6,7 C 5,6 C 93 % 4 lf 1010,9 hPa 0,0 l/m 0 min 0 min 0 W/m 20,3 km/h (4 Bft) 95,74 %
25.01.2018 18:32 7,4 C 6,7 C 5,6 C 93 % 4 lf 1010,9 hPa 0,0 l/m 0 min 0 min 0 W/m 15,8 km/h (3 Bft) 93,62 %
25.01.2018 18:34 7,4 C 6,7 C 5,6 C 93 % 4 lf 1010,9 hPa 0,0 l/m 0 min 0 min 0 W/m 15,8 km/h (3 Bft) 93,48 %
25.01.2018 18:36 7,4 C 6,7 C 5,6 C 93 % 3 lf 1010,9 hPa 0,0 l/m 0 min 0 min 0 W/m 13,5 km/h (3 Bft) 93,62 %
25.01.2018 18:38 7,4 C 6,7 C 5,6 C 93 % 3 lf 1011,0 hPa 0,0 l/m 0 min 0 min 0 W/m 13,5 km/h (3 Bft) 89,36 %
25.01.2018 18:40 7,4 C 6,7 C 5,6 C 93 % 3 lf 1011,0 hPa 0,0 l/m 0 min 0 min 0 W/m 18,0 km/h (3 Bft) 91,49 %
25.01.2018 18:42 7,4 C 6,7 C 5,6 C 93 % 3 lf 1011,0 hPa 0,0 l/m 0 min 2 min 0 W/m 18,0 km/h (3 Bft) 93,62 %
25.01.2018 18:44 7,4 C 6,7 C 5,6 C 93 % 3 lf 1011,0 hPa 0,0 l/m 0 min 2 min 0 W/m 15,8 km/h (3 Bft) 91,49 %
25.01.2018 18:46 7,4 C 6,7 C 5,6 C 93 % 3 lf 1010,9 hPa 0,0 l/m 0 min 2 min 0 W/m 18,0 km/h (3 Bft) 95,65 %
25.01.2018 18:48 7,4 C 6,7 C 5,6 C 93 % 3 lf 1010,9 hPa 0,0 l/m 0 min 0 min 0 W/m 20,3 km/h (4 Bft) 95,74 %
25.01.2018 18:50 7,4 C 6,1 C 5,6 C 93 % 4 lf 1011,0 hPa 0,0 l/m 0 min 2 min 0 W/m 13,5 km/h (3 Bft) 95,74 %
25.01.2018 18:52 7,3 C 6,1 C 5,6 C 93 % 9 lf 1011,1 hPa 0,0 l/m 0 min 2 min 0 W/m 15,8 km/h (3 Bft) 91,49 %
25.01.2018 18:54 7,3 C 6,1 C 5,6 C 93 % 10 lf 1011,0 hPa 0,0 l/m 0 min 2 min 0 W/m 13,5 km/h (3 Bft) 95,74 %
25.01.2018 18:56 7,3 C 6,1 C 5,6 C 93 % 10 lf 1011,1 hPa 0,0 l/m 0 min 2 min 0 W/m 11,3 km/h (2 Bft) 95,65 %
25.01.2018 18:58 7,3 C 6,1 C 5,6 C 93 % 11 lf 1011,0 hPa 0,0 l/m 0 min 2 min 0 W/m 18,0 km/h (3 Bft) 95,74 %
25.01.2018 19:00 7,3 C 6,1 C 5,6 C 93 % 12 lf 1011,0 hPa 0,0 l/m 0 min 2 min 0 W/m 15,8 km/h (3 Bft) 95,74 %
25.01.2018 19:02 7,3 C 6,1 C 5,6 C 93 % 12 lf 1011,1 hPa 0,0 l/m 0 min 2 min 0 W/m 18,0 km/h (3 Bft) 93,62 %
25.01.2018 19:04 7,3 C 6,1 C 5,6 C 93 % 12 lf 1011,0 hPa 0,0 l/m 0 min 2 min 0 W/m 15,8 km/h (3 Bft) 93,62 %
25.01.2018 19:06 7,3 C 6,1 C 5,6 C 93 % 12 lf 1011,0 hPa 0,0 l/m 0 min 2 min 0 W/m 20,3 km/h (4 Bft) 93,62 %
25.01.2018 19:08 7,3 C 6,1 C 5,6 C 93 % 12 lf 1011,0 hPa 0,0 l/m 0 min 2 min 0 W/m 18,0 km/h (3 Bft) 95,65 %
25.01.2018 19:10 7,3 C 6,1 C 5,6 C 93 % 12 lf 1011,0 hPa 0,0 l/m 0 min 2 min 0 W/m 15,8 km/h (3 Bft) 93,62 %
25.01.2018 19:12 7,3 C 6,7 C 5,6 C 93 % 11 lf 1011,0 hPa 0,0 l/m 0 min 2 min 0 W/m 22,5 km/h (4 Bft) 97,87 %
25.01.2018 19:14 7,3 C 6,7 C 5,6 C 93 % 11 lf 1011,0 hPa 0,0 l/m 0 min 2 min 0 W/m 18,0 km/h (3 Bft) 97,87 %
25.01.2018 19:16 7,3 C 6,7 C 5,6 C 93 % 11 lf 1011,0 hPa 0,0 l/m 0 min 2 min 0 W/m 20,3 km/h (4 Bft) 95,74 %
25.01.2018 19:18 7,4 C 6,7 C 5,6 C 93 % 10 lf 1011,1 hPa 0,0 l/m 0 min 2 min 0 W/m 18,0 km/h (3 Bft) 95,74 %
25.01.2018 19:20 7,4 C 6,7 C 5,6 C 93 % 10 lf 1011,0 hPa 0,2 l/m 0 min 2 min 0 W/m 20,3 km/h (4 Bft) 95,65 %
25.01.2018 19:22 7,4 C 6,7 C 5,6 C 93 % 10 lf 1011,1 hPa 0,0 l/m 0 min 2 min 0 W/m 13,5 km/h (3 Bft) 95,74 %
25.01.2018 19:24 7,4 C 6,7 C 5,6 C 93 % 10 lf 1011,1 hPa 0,0 l/m 0 min 2 min 0 W/m 18,0 km/h (3 Bft) 97,87 %
25.01.2018 19:26 7,4 C 6,7 C 5,6 C 93 % 10 lf 1011,1 hPa 0,0 l/m 0 min 0 min 0 W/m 11,3 km/h (2 Bft) 97,87 %
25.01.2018 19:28 7,4 C 6,7 C 5,6 C 93 % 9 lf 1011,1 hPa 0,0 l/m 0 min 2 min 0 W/m 15,8 km/h (3 Bft) 97,87 %
25.01.2018 19:30 7,4 C 6,7 C 5,6 C 93 % 9 lf 1011,1 hPa 0,0 l/m 0 min 2 min 0 W/m 18,0 km/h (3 Bft) 97,87 %
25.01.2018 19:32 7,4 C 6,7 C 5,6 C 93 % 9 lf 1011,2 hPa 0,0 l/m 0 min 2 min 0 W/m 15,8 km/h (3 Bft) 97,83 %
25.01.2018 19:34 7,4 C 6,7 C 5,6 C 93 % 10 lf 1011,2 hPa 0,0 l/m 0 min 2 min 0 W/m 15,8 km/h (3 Bft) 97,87 %
25.01.2018 19:36 7,4 C 6,7 C 5,6 C 93 % 11 lf 1011,3 hPa 0,0 l/m 0 min 2 min 0 W/m 11,3 km/h (2 Bft) 95,74 %
25.01.2018 19:38 7,4 C 6,7 C 5,6 C 93 % 10 lf 1011,3 hPa 0,0 l/m 0 min 2 min 0 W/m 18,0 km/h (3 Bft) 95,74 %
25.01.2018 19:40 7,4 C 6,7 C 5,6 C 93 % 11 lf 1011,4 hPa 0,0 l/m 0 min 2 min 0 W/m 18,0 km/h (3 Bft) 97,87 %
25.01.2018 19:42 7,4 C 6,7 C 5,6 C 93 % 10 lf 1011,4 hPa 0,0 l/m 0 min 2 min 0 W/m 18,0 km/h (3 Bft) 91,49 %
25.01.2018 19:44 7,4 C 6,7 C 5,6 C 93 % 10 lf 1011,5 hPa 0,0 l/m 0 min 2 min 0 W/m 20,3 km/h (4 Bft) 100,00 %
25.01.2018 19:46 7,4 C 6,7 C 5,6 C 93 % 10 lf 1011,5 hPa 0,0 l/m 0 min 2 min 0 W/m 9,0 km/h (2 Bft) 100,00 %
25.01.2018 19:48 7,4 C 6,1 C 5,6 C 93 % 10 lf 1011,5 hPa 0,0 l/m 0 min 0 min 0 W/m 9,0 km/h (2 Bft) 100,00 %
25.01.2018 19:50 7,4 C 6,1 C 5,6 C 93 % 10 lf 1011,5 hPa 0,0 l/m 0 min 0 min 0 W/m 9,0 km/h (2 Bft) 100,00 %
25.01.2018 19:52 7,4 C 6,1 C 5,6 C 93 % 10 lf 1011,5 hPa 0,0 l/m 0 min 0 min 0 W/m 13,5 km/h (3 Bft) 95,74 %
25.01.2018 19:54 7,3 C 6,1 C 5,6 C 94 % 10 lf 1011,4 hPa 0,0 l/m 0 min 2 min 0 W/m 15,8 km/h (3 Bft) 97,83 %
25.01.2018 19:56 7,3 C 6,1 C 5,6 C 94 % 9 lf 1011,5 hPa 0,0 l/m 0 min 0 min 0 W/m 13,5 km/h (3 Bft) 97,87 %
25.01.2018 19:58 7,3 C 6,1 C 5,6 C 93 % 9 lf 1011,5 hPa 0,0 l/m 0 min 2 min 0 W/m 13,5 km/h (3 Bft) 100,00 %
25.01.2018 20:00 7,3 C 6,1 C 5,6 C 94 % 11 lf 1011,5 hPa 0,0 l/m 0 min 2 min 0 W/m 9,0 km/h (2 Bft) 97,87 %
25.01.2018 20:02 7,3 C 6,1 C 5,6 C 94 % 12 lf 1011,5 hPa 0,0 l/m 0 min 2 min 0 W/m 13,5 km/h (3 Bft) 95,74 %
25.01.2018 20:04 7,3 C 6,1 C 5,6 C 94 % 11 lf 1011,4 hPa 0,0 l/m 0 min 2 min 0 W/m 18,0 km/h (3 Bft) 97,87 %
25.01.2018 20:06 7,3 C 6,1 C 5,6 C 94 % 12 lf 1011,5 hPa 0,0 l/m 0 min 2 min 0 W/m 11,3 km/h (2 Bft) 95,65 %
25.01.2018 20:08 7,3 C 6,1 C 5,6 C 94 % 12 lf 1011,5 hPa 0,0 l/m 0 min 2 min 0 W/m 11,3 km/h (2 Bft) 93,62 %
25.01.2018 20:10 7,2 C 6,1 C 5,6 C 94 % 12 lf 1011,5 hPa 0,0 l/m 0 min 2 min 0 W/m 11,3 km/h (2 Bft) 93,62 %
25.01.2018 20:12 7,2 C 6,1 C 5,6 C 94 % 12 lf 1011,5 hPa 0,0 l/m 0 min 2 min 0 W/m 13,5 km/h (3 Bft) 95,74 %
25.01.2018 20:14 7,2 C 6,1 C 5,6 C 94 % 12 lf 1011,5 hPa 0,0 l/m 0 min 2 min 0 W/m 13,5 km/h (3 Bft) 97,87 %
25.01.2018 20:16 7,2 C 6,1 C 5,6 C 94 % 13 lf 1011,4 hPa 0,0 l/m 0 min 2 min 0 W/m 13,5 km/h (3 Bft) 93,62 %
25.01.2018 20:18 7,2 C 6,1 C 5,6 C 94 % 12 lf 1011,4 hPa 0,0 l/m 0 min 2 min 0 W/m 11,3 km/h (2 Bft) 91,30 %
25.01.2018 20:20 7,2 C 6,1 C 5,6 C 94 % 13 lf 1011,4 hPa 0,0 l/m 0 min 2 min 0 W/m 11,3 km/h (2 Bft) 93,62 %
25.01.2018 20:22 7,2 C 6,1 C 5,6 C 94 % 13 lf 1011,4 hPa 0,0 l/m 0 min 2 min 0 W/m 11,3 km/h (2 Bft) 95,74 %
25.01.2018 20:24 7,2 C 6,1 C 5,6 C 94 % 13 lf 1011,5 hPa 0,0 l/m 0 min 2 min 0 W/m 13,5 km/h (3 Bft) 95,74 %
25.01.2018 20:26 7,2 C 6,1 C 5,6 C 94 % 13 lf 1011,5 hPa 0,0 l/m 0 min 2 min 0 W/m 13,5 km/h (3 Bft) 93,62 %
25.01.2018 20:28 7,2 C 6,1 C 5,6 C 94 % 13 lf 1011,5 hPa 0,0 l/m 0 min 2 min 0 W/m 9,0 km/h (2 Bft) 95,74 %
25.01.2018 20:30 7,2 C 6,1 C 5,0 C 94 % 13 lf 1011,5 hPa 0,0 l/m 0 min 2 min 0 W/m 6,8 km/h (2 Bft) 95,65 %
25.01.2018 20:32 7,2 C 6,1 C 5,0 C 94 % 13 lf 1011,4 hPa 0,0 l/m 0 min 2 min 0 W/m 9,0 km/h (2 Bft) 93,62 %
25.01.2018 20:34 7,1 C 6,1 C 5,0 C 94 % 13 lf 1011,5 hPa 0,0 l/m 0 min 0 min 0 W/m 9,0 km/h (2 Bft) 89,36 %
25.01.2018 20:36 7,1 C 6,1 C 5,0 C 94 % 13 lf 1011,5 hPa 0,2 l/m 0 min 0 min 0 W/m 11,3 km/h (2 Bft) 93,62 %
25.01.2018 20:38 7,1 C 6,1 C 5,0 C 94 % 13 lf 1011,5 hPa 0,0 l/m 0 min 0 min 0 W/m 11,3 km/h (2 Bft) 95,74 %
25.01.2018 20:40 7,1 C 6,1 C 5,0 C 94 % 13 lf 1011,4 hPa 0,0 l/m 0 min 0 min 0 W/m 11,3 km/h (2 Bft) 97,83 %
25.01.2018 20:42 7,1 C 6,1 C 5,0 C 94 % 13 lf 1011,4 hPa 0,0 l/m 0 min 0 min 0 W/m 9,0 km/h (2 Bft) 97,87 %
25.01.2018 20:44 7,1 C 6,1 C 5,0 C 94 % 13 lf 1011,3 hPa 0,0 l/m 0 min 0 min 0 W/m 6,8 km/h (2 Bft) 100,00 %
25.01.2018 20:46 7,1 C 6,1 C 5,0 C 94 % 12 lf 1011,3 hPa 0,0 l/m 0 min 0 min 0 W/m 9,0 km/h (2 Bft) 100,00 %
25.01.2018 20:48 7,1 C 6,1 C 5,0 C 94 % 12 lf 1011,4 hPa 0,0 l/m 0 min 0 min 0 W/m 9,0 km/h (2 Bft) 97,87 %
25.01.2018 20:50 7,1 C 6,1 C 5,0 C 94 % 12 lf 1011,4 hPa 0,0 l/m 0 min 0 min 0 W/m 13,5 km/h (3 Bft) 100,00 %
25.01.2018 20:52 7,1 C 6,1 C 5,0 C 94 % 12 lf 1011,4 hPa 0,0 l/m 0 min 0 min 0 W/m 9,0 km/h (2 Bft) 95,65 %
25.01.2018 20:54 7,1 C 6,1 C 5,0 C 94 % 12 lf 1011,5 hPa 0,0 l/m 0 min 0 min 0 W/m 9,0 km/h (2 Bft) 100,00 %
25.01.2018 20:56 7,0 C 6,1 C 5,6 C 94 % 12 lf 1011,5 hPa 0,0 l/m 0 min 0 min 0 W/m 11,3 km/h (2 Bft) 100,00 %
25.01.2018 20:58 7,1 C 6,1 C 5,6 C 94 % 12 lf 1011,5 hPa 0,0 l/m 0 min 0 min 0 W/m 11,3 km/h (2 Bft) 97,87 %
25.01.2018 21:00 7,1 C 6,1 C 5,0 C 94 % 11 lf 1011,5 hPa 0,0 l/m 0 min 0 min 0 W/m 6,8 km/h (2 Bft) 100,00 %
25.01.2018 21:02 7,0 C 6,1 C 5,0 C 94 % 11 lf 1011,5 hPa 0,0 l/m 0 min 0 min 0 W/m 9,0 km/h (2 Bft) 100,00 %
25.01.2018 21:04 7,0 C 6,1 C 5,0 C 94 % 11 lf 1011,5 hPa 0,0 l/m 0 min 0 min 0 W/m 9,0 km/h (2 Bft) 100,00 %
25.01.2018 21:06 7,0 C 6,1 C 5,0 C 94 % 10 lf 1011,5 hPa 0,0 l/m 0 min 0 min 0 W/m 6,8 km/h (2 Bft) 100,00 %
25.01.2018 21:08 7,0 C 6,1 C 5,6 C 94 % 10 lf 1011,4 hPa 0,0 l/m 0 min 0 min 0 W/m 6,8 km/h (2 Bft) 97,87 %
25.01.2018 21:10 7,0 C 6,1 C 5,0 C 94 % 10 lf 1011,3 hPa 0,0 l/m 0 min 0 min 0 W/m 9,0 km/h (2 Bft) 100,00 %
25.01.2018 21:12 7,0 C 6,1 C 5,6 C 94 % 10 lf 1011,3 hPa 0,0 l/m 0 min 0 min 0 W/m 6,8 km/h (2 Bft) 97,87 %
25.01.2018 21:14 7,0 C 6,1 C 5,6 C 94 % 10 lf 1011,3 hPa 0,0 l/m 0 min 0 min 0 W/m 6,8 km/h (2 Bft) 97,87 %
25.01.2018 21:16 7,0 C 6,1 C 5,6 C 94 % 9 lf 1011,3 hPa 0,0 l/m 0 min 0 min 0 W/m 11,3 km/h (2 Bft) 100,00 %
25.01.2018 21:18 7,0 C 6,1 C 5,6 C 94 % 9 lf 1011,3 hPa 0,0 l/m 0 min 0 min 0 W/m 9,0 km/h (2 Bft) 100,00 %
25.01.2018 21:20 7,0 C 6,1 C 5,6 C 94 % 9 lf 1011,3 hPa 0,0 l/m 0 min 0 min 0 W/m 11,3 km/h (2 Bft) 97,87 %
25.01.2018 21:22 7,0 C 6,1 C 5,6 C 94 % 8 lf 1011,3 hPa 0,0 l/m 0 min 0 min 0 W/m 6,8 km/h (2 Bft) 97,87 %
25.01.2018 21:24 7,0 C 6,1 C 5,6 C 94 % 8 lf 1011,4 hPa 0,0 l/m 0 min 0 min 0 W/m 9,0 km/h (2 Bft) 97,87 %
25.01.2018 21:26 7,0 C 6,1 C 5,6 C 94 % 8 lf 1011,4 hPa 0,0 l/m 0 min 0 min 0 W/m 6,8 km/h (2 Bft) 93,62 %
25.01.2018 21:28 7,0 C 6,1 C 5,6 C 94 % 7 lf 1011,3 hPa 0,0 l/m 0 min 0 min 0 W/m 11,3 km/h (2 Bft) 95,65 %
25.01.2018 21:30 7,0 C 6,1 C 5,6 C 94 % 7 lf 1011,3 hPa 0,0 l/m 0 min 0 min 0 W/m 11,3 km/h (2 Bft) 97,87 %
25.01.2018 21:32 7,0 C 6,1 C 5,6 C 94 % 7 lf 1011,3 hPa 0,0 l/m 0 min 0 min 0 W/m 9,0 km/h (2 Bft) 97,87 %
25.01.2018 21:34 7,0 C 6,1 C 5,0 C 94 % 6 lf 1011,4 hPa 0,0 l/m 0 min 0 min 0 W/m 13,5 km/h (3 Bft) 95,74 %
25.01.2018 21:36 7,0 C 6,1 C 5,6 C 95 % 6 lf 1011,4 hPa 0,0 l/m 0 min 0 min 0 W/m 13,5 km/h (3 Bft) 95,74 %
25.01.2018 21:38 7,0 C 6,1 C 5,0 C 95 % 6 lf 1011,3 hPa 0,0 l/m 0 min 0 min 0 W/m 9,0 km/h (2 Bft) 97,87 %
25.01.2018 21:40 7,0 C 6,1 C 5,0 C 95 % 6 lf 1011,3 hPa 0,0 l/m 0 min 0 min 0 W/m 11,3 km/h (2 Bft) 97,83 %
25.01.2018 21:42 7,0 C 6,1 C 5,0 C 95 % 5 lf 1011,3 hPa 0,0 l/m 0 min 0 min 0 W/m 9,0 km/h (2 Bft) 95,74 %
25.01.2018 21:44 7,0 C 6,1 C 5,0 C 95 % 5 lf 1011,3 hPa 0,0 l/m 0 min 0 min 0 W/m 11,3 km/h (2 Bft) 97,87 %
25.01.2018 21:46 7,1 C 6,1 C 5,0 C 95 % 5 lf 1011,3 hPa 0,0 l/m 0 min 0 min 0 W/m 6,8 km/h (2 Bft) 95,74 %
25.01.2018 21:48 7,0 C 6,1 C 5,0 C 95 % 5 lf 1011,4 hPa 0,0 l/m 0 min 0 min 0 W/m 6,8 km/h (2 Bft) 93,62 %
25.01.2018 21:50 7,0 C 6,1 C 5,0 C 95 % 4 lf 1011,4 hPa 0,0 l/m 0 min 0 min 0 W/m 6,8 km/h (2 Bft) 97,87 %
25.01.2018 21:52 7,0 C 6,1 C 5,0 C 95 % 4 lf 1011,5 hPa 0,0 l/m 0 min 0 min 0 W/m 11,3 km/h (2 Bft) 97,83 %
25.01.2018 21:54 7,0 C 6,1 C 5,0 C 95 % 4 lf 1011,5 hPa 0,0 l/m 0 min 0 min 0 W/m 6,8 km/h (2 Bft) 93,62 %
25.01.2018 21:56 7,0 C 6,1 C 5,0 C 95 % 4 lf 1011,4 hPa 0,0 l/m 0 min 0 min 0 W/m 9,0 km/h (2 Bft) 95,74 %
25.01.2018 21:58 7,0 C 6,1 C 5,0 C 95 % 4 lf 1011,3 hPa 0,0 l/m 0 min 0 min 0 W/m 6,8 km/h (2 Bft) 97,87 %
25.01.2018 22:00 7,0 C 6,1 C 5,0 C 95 % 4 lf 1011,3 hPa 0,0 l/m 0 min 0 min 0 W/m 6,8 km/h (2 Bft) 91,49 %
25.01.2018 22:02 7,0 C 6,1 C 5,0 C 95 % 4 lf 1011,3 hPa 0,0 l/m 0 min 0 min 0 W/m 6,8 km/h (2 Bft) 91,30 %
25.01.2018 22:04 7,0 C 6,1 C 5,0 C 95 % 4 lf 1011,3 hPa 0,0 l/m 0 min 0 min 0 W/m 6,8 km/h (2 Bft) 95,74 %
25.01.2018 22:06 7,0 C 6,1 C 5,0 C 95 % 4 lf 1011,4 hPa 0,0 l/m 0 min 0 min 0 W/m 4,5 km/h (1 Bft) 95,74 %
25.01.2018 22:08 7,0 C 6,1 C 5,0 C 95 % 4 lf 1011,4 hPa 0,0 l/m 0 min 0 min 0 W/m 6,8 km/h (2 Bft) 95,74 %
25.01.2018 22:10 7,0 C 6,1 C 5,0 C 95 % 4 lf 1011,4 hPa 0,0 l/m 0 min 0 min 0 W/m 6,8 km/h (2 Bft) 95,74 %
25.01.2018 22:12 7,0 C 6,1 C 5,0 C 95 % 4 lf 1011,4 hPa 0,0 l/m 0 min 0 min 0 W/m 4,5 km/h (1 Bft) 93,62 %
25.01.2018 22:14 6,9 C 6,1 C 5,0 C 95 % 4 lf 1011,4 hPa 0,0 l/m 0 min 0 min 0 W/m 4,5 km/h (1 Bft) 89,13 %
25.01.2018 22:16 6,9 C 6,1 C 5,0 C 95 % 4 lf 1011,4 hPa 0,0 l/m 0 min 0 min 0 W/m 6,8 km/h (2 Bft) 95,74 %
25.01.2018 22:18 6,9 C 6,1 C 5,0 C 95 % 4 lf 1011,4 hPa 0,0 l/m 0 min 0 min 0 W/m 6,8 km/h (2 Bft) 95,74 %
25.01.2018 22:20 6,9 C 6,1 C 5,0 C 95 % 3 lf 1011,4 hPa 0,0 l/m 0 min 0 min 0 W/m 6,8 km/h (2 Bft) 97,87 %
25.01.2018 22:22 6,9 C 6,1 C 5,0 C 95 % 3 lf 1011,5 hPa 0,0 l/m 0 min 0 min 0 W/m 4,5 km/h (1 Bft) 97,87 %
25.01.2018 22:24 6,9 C 6,1 C 5,0 C 95 % 3 lf 1011,4 hPa 0,0 l/m 0 min 0 min 0 W/m 4,5 km/h (1 Bft) 97,87 %
25.01.2018 22:26 6,9 C 6,1 C 5,0 C 95 % 3 lf 1011,5 hPa 0,0 l/m 0 min 0 min 0 W/m 4,5 km/h (1 Bft) 95,65 %
25.01.2018 22:28 6,9 C 6,1 C 5,0 C 95 % 3 lf 1011,5 hPa 0,0 l/m 0 min 0 min 0 W/m 6,8 km/h (2 Bft) 93,62 %
25.01.2018 22:30 6,9 C 6,1 C 5,0 C 95 % 3 lf 1011,5 hPa 0,0 l/m 0 min 0 min 0 W/m 6,8 km/h (2 Bft) 95,74 %
25.01.2018 22:32 6,9 C 6,1 C 5,0 C 95 % 3 lf 1011,5 hPa 0,0 l/m 0 min 0 min 0 W/m 6,8 km/h (2 Bft) 100,00 %
25.01.2018 22:34 6,9 C 6,1 C 5,0 C 95 % 3 lf 1011,5 hPa 0,0 l/m 0 min 0 min 0 W/m 6,8 km/h (2 Bft) 95,74 %
25.01.2018 22:36 6,9 C 6,1 C 5,0 C 95 % 3 lf 1011,5 hPa 0,0 l/m 0 min 0 min 0 W/m 4,5 km/h (1 Bft) 97,87 %
25.01.2018 22:38 6,9 C 6,1 C 5,0 C 95 % 3 lf 1011,5 hPa 0,0 l/m 0 min 0 min 0 W/m 6,8 km/h (2 Bft) 97,83 %
25.01.2018 22:40 6,9 C 6,1 C 5,0 C 95 % 3 lf 1011,5 hPa 0,0 l/m 0 min 0 min 0 W/m 6,8 km/h (2 Bft) 95,74 %
25.01.2018 22:42 6,9 C 6,1 C 5,0 C 95 % 3 lf 1011,5 hPa 0,0 l/m 0 min 0 min 0 W/m 6,8 km/h (2 Bft) 91,49 %
25.01.2018 22:44 6,8 C 6,1 C 5,0 C 95 % 3 lf 1011,5 hPa 0,0 l/m 0 min 0 min 0 W/m 4,5 km/h (1 Bft) 95,74 %
25.01.2018 22:46 6,8 C 6,1 C 5,0 C 95 % 3 lf 1011,5 hPa 0,0 l/m 0 min 0 min 0 W/m 0,0 km/h (0 Bft) 95,74 %
25.01.2018 22:48 6,8 C 6,1 C 4,4 C 95 % 3 lf 1011,5 hPa 0,0 l/m 0 min 0 min 0 W/m 6,8 km/h (2 Bft) 93,62 %
25.01.2018 22:50 6,8 C 6,1 C 4,4 C 95 % 3 lf 1011,6 hPa 0,0 l/m 0 min 0 min 0 W/m 9,0 km/h (2 Bft) 93,48 %
25.01.2018 22:52 6,8 C 6,1 C 4,4 C 95 % 3 lf 1011,6 hPa 0,0 l/m 0 min 0 min 0 W/m 6,8 km/h (2 Bft) 95,74 %
25.01.2018 22:54 6,8 C 6,1 C 4,4 C 95 % 3 lf 1011,6 hPa 0,0 l/m 0 min 0 min 0 W/m 6,8 km/h (2 Bft) 95,74 %
25.01.2018 22:56 6,8 C 6,1 C 4,4 C 95 % 3 lf 1011,7 hPa 0,0 l/m 0 min 0 min 0 W/m 9,0 km/h (2 Bft) 93,62 %
25.01.2018 22:58 6,8 C 6,1 C 4,4 C 95 % 3 lf 1011,7 hPa 0,0 l/m 0 min 0 min 0 W/m 6,8 km/h (2 Bft) 97,87 %
25.01.2018 23:00 6,8 C 6,1 C 4,4 C 95 % 3 lf 1011,7 hPa 0,0 l/m 0 min 0 min 0 W/m 6,8 km/h (2 Bft) 95,65 %
25.01.2018 23:02 6,7 C 6,1 C 4,4 C 95 % 3 lf 1011,6 hPa 0,0 l/m 0 min 0 min 0 W/m 6,8 km/h (2 Bft) 93,62 %
25.01.2018 23:04 6,7 C 5,6 C 4,4 C 95 % 3 lf 1011,8 hPa 0,0 l/m 0 min 0 min 0 W/m 4,5 km/h (1 Bft) 93,62 %
25.01.2018 23:06 6,7 C 6,1 C 4,4 C 95 % 3 lf 1011,7 hPa 0,0 l/m 0 min 0 min 0 W/m 6,8 km/h (2 Bft) 89,58 %
25.01.2018 23:08 6,7 C 6,1 C 4,4 C 95 % 3 lf 1011,8 hPa 0,0 l/m 0 min 0 min 0 W/m 9,0 km/h (2 Bft) 93,62 %
25.01.2018 23:10 6,7 C 6,1 C 4,4 C 95 % 3 lf 1011,7 hPa 0,0 l/m 0 min 0 min 0 W/m 4,5 km/h (1 Bft) 93,62 %
25.01.2018 23:12 6,7 C 6,1 C 4,4 C 95 % 3 lf 1011,7 hPa 0,0 l/m 0 min 0 min 0 W/m 6,8 km/h (2 Bft) 93,48 %
25.01.2018 23:14 6,7 C 6,1 C 4,4 C 95 % 3 lf 1011,8 hPa 0,0 l/m 0 min 0 min 0 W/m 4,5 km/h (1 Bft) 95,74 %
25.01.2018 23:16 6,6 C 6,1 C 4,4 C 95 % 3 lf 1011,7 hPa 0,0 l/m 0 min 0 min 0 W/m 6,8 km/h (2 Bft) 95,74 %
25.01.2018 23:18 6,6 C 6,1 C 4,4 C 95 % 2 lf 1011,8 hPa 0,0 l/m 0 min 0 min 0 W/m 6,8 km/h (2 Bft) 97,87 %
25.01.2018 23:20 6,6 C 6,1 C 4,4 C 95 % 2 lf 1011,8 hPa 0,0 l/m 0 min 0 min 0 W/m 6,8 km/h (2 Bft) 95,74 %
25.01.2018 23:22 6,6 C 6,1 C 4,4 C 95 % 2 lf 1011,8 hPa 0,0 l/m 0 min 0 min 0 W/m 9,0 km/h (2 Bft) 95,74 %
25.01.2018 23:24 6,6 C 6,1 C 4,4 C 95 % 2 lf 1011,7 hPa 0,0 l/m 0 min 0 min 0 W/m 6,8 km/h (2 Bft) 93,48 %
25.01.2018 23:26 6,6 C 6,1 C 4,4 C 95 % 2 lf 1011,8 hPa 0,0 l/m 0 min 0 min 0 W/m 6,8 km/h (2 Bft) 97,87 %
25.01.2018 23:28 6,6 C 6,1 C 4,4 C 95 % 2 lf 1011,7 hPa 0,0 l/m 0 min 0 min 0 W/m 6,8 km/h (2 Bft) 97,87 %
25.01.2018 23:30 6,5 C 6,1 C 4,4 C 95 % 2 lf 1011,6 hPa 0,0 l/m 0 min 0 min 0 W/m 4,5 km/h (1 Bft) 95,74 %
25.01.2018 23:32 6,5 C 6,1 C 4,4 C 95 % 2 lf 1011,7 hPa 0,0 l/m 0 min 0 min 0 W/m 6,8 km/h (2 Bft) 95,74 %
25.01.2018 23:34 6,5 C 6,1 C 4,4 C 96 % 2 lf 1011,8 hPa 0,0 l/m 0 min 0 min 0 W/m 6,8 km/h (2 Bft) 95,74 %
25.01.2018 23:36 6,5 C 5,6 C 4,4 C 95 % 2 lf 1011,8 hPa 0,0 l/m 0 min 0 min 0 W/m 6,8 km/h (2 Bft) 95,65 %
25.01.2018 23:38 6,5 C 6,1 C 4,4 C 95 % 2 lf 1011,8 hPa 0,0 l/m 0 min 0 min 0 W/m 6,8 km/h (2 Bft) 95,74 %
25.01.2018 23:40 6,5 C 5,6 C 4,4 C 95 % 2 lf 1011,9 hPa 0,0 l/m 0 min 0 min 0 W/m 9,0 km/h (2 Bft) 97,87 %
25.01.2018 23:42 6,4 C 6,1 C 4,4 C 95 % 2 lf 1011,9 hPa 0,0 l/m 0 min 0 min 0 W/m 11,3 km/h (2 Bft) 97,87 %
25.01.2018 23:44 6,4 C 6,1 C 4,4 C 95 % 1 lf 1011,9 hPa 0,0 l/m 0 min 0 min 0 W/m 11,3 km/h (2 Bft) 97,87 %
25.01.2018 23:46 6,4 C 6,1 C 5,0 C 95 % 1 lf 1012,0 hPa 0,0 l/m 0 min 0 min 0 W/m 9,0 km/h (2 Bft) 100,00 %
25.01.2018 23:48 6,4 C 6,1 C 5,0 C 95 % 1 lf 1012,0 hPa 0,0 l/m 0 min 0 min 0 W/m 6,8 km/h (2 Bft) 100,00 %
25.01.2018 23:50 6,4 C 6,1 C 5,0 C 95 % 1 lf 1012,1 hPa 0,0 l/m 0 min 0 min 0 W/m 6,8 km/h (2 Bft) 97,87 %
25.01.2018 23:52 6,4 C 6,1 C 4,4 C 95 % 1 lf 1012,1 hPa 0,0 l/m 0 min 0 min 0 W/m 6,8 km/h (2 Bft) 95,74 %
25.01.2018 23:54 6,4 C 5,6 C 4,4 C 95 % 1 lf 1012,1 hPa 0,0 l/m 0 min 0 min 0 W/m 6,8 km/h (2 Bft) 97,87 %
25.01.2018 23:56 6,4 C 6,1 C 4,4 C 95 % 0 lf 1012,1 hPa 0,0 l/m 0 min 0 min 0 W/m 11,3 km/h (2 Bft) 93,62 %
25.01.2018 23:58 6,4 C 6,1 C 5,0 C 95 % 0 lf 1012,1 hPa 0,0 l/m 0 min 0 min 0 W/m 9,0 km/h (2 Bft) 100,00 %
_ Min-Zeit 23:42 23:04 22:48 00:00 00:00 00:16 - - - - 22:46 07:14
Minimum _ 6,4 C 5,6 C 4,4 C 81 % 0 lf 1009,1 hPa - - - - 0,0 km/h (0 Bft) 87,23 %
_ Max-Zeit 00:00 00:00 00:00 03:26 00:46 11:00 01:10 12:36 00:44 12:54 00:36 00:22
Maximum _ 12,3 C 12,2 C 10,6 C 96 % 15 lf 1012,4 hPa 0,4 l/m 2 min 2 min 195 W/m 49,6 km/h
SW (6 Bft)
100,00 %
Durchschnitt _ 8,2 C 7,8 C 6,7 C 92 % 7 lf 1011,2 hPa #3,0 l/m #16 min. #6:20 h 77 W/m 14,6 km/h (3 Bft) 96,45 %
© 2018 W. Hausmann